| time (UTC) | temp C | wind direction | speed KPH | gust KPH | rain 1hr cm | rain 24hr cm | rain mn cm | humidity % | barometer mb |
| 20260831024934 | 22 | 192 | 0.0 | 0.0 | 0.00 | 0.00 | 0.00 | 86 | 1023.5 |
| 20260831024834 | 22 | 191 | 0.0 | 0.0 | 0.00 | 0.00 | 0.00 | 86 | 1023.5 |
| 20260831024735 | 22 | 192 | 0.0 | 0.0 | 0.00 | 0.00 | 0.00 | 87 | 1023.5 |
| 20260831024633 | 22 | 192 | 0.0 | 0.0 | 0.00 | 0.00 | 0.00 | 86 | 1023.5 |
| 20260831024531 | 22 | 192 | 0.0 | 0.0 | 0.00 | 0.00 | 0.00 | 86 | 1023.6 |
| 20260831024430 | 22 | 191 | 0.0 | 0.0 | 0.00 | 0.00 | 0.00 | 86 | 1023.3 |
| 20260831024330 | 22 | 191 | 0.0 | 0.0 | 0.00 | 0.00 | 0.00 | 87 | 1023.5 |
| 20260831024229 | 22 | 191 | 0.0 | 0.0 | 0.00 | 0.00 | 0.00 | 87 | 1023.5 |
| 20260831024127 | 22 | 192 | 0.0 | 0.0 | 0.00 | 0.00 | 0.00 | 87 | 1023.5 |
| 20260831024025 | 22 | 193 | 0.0 | 0.0 | 0.00 | 0.00 | 0.00 | 87 | 1023.5 |
| 20260831023919 | 22 | 193 | 0.0 | 0.0 | 0.00 | 0.00 | 0.00 | 87 | 1023.6 |
| 20260831023818 | 22 | 194 | 0.0 | 0.0 | 0.00 | 0.00 | 0.00 | 87 | 1023.5 |
| 20260831023719 | 22 | 195 | 0.0 | 0.0 | 0.00 | 0.00 | 0.00 | 87 | 1023.5 |
| 20260831023616 | 22 | 195 | 0.0 | 0.0 | 0.00 | 0.00 | 0.00 | 86 | 1023.5 |
| 20260831023514 | 22 | 194 | 0.0 | 0.0 | 0.00 | 0.00 | 0.00 | 86 | 1023.6 |
| 20260831023412 | 22 | 194 | 0.0 | 0.0 | 0.00 | 0.00 | 0.00 | 86 | 1023.6 |
| 20260831023309 | 22 | 194 | 0.0 | 0.0 | 0.00 | 0.00 | 0.00 | 86 | 1023.6 |
| 20260831023208 | 22 | 194 | 0.0 | 0.0 | 0.00 | 0.00 | 0.00 | 86 | 1023.6 |
| 20260831023110 | 22 | 196 | 0.0 | 0.0 | 0.00 | 0.00 | 0.00 | 86 | 1023.6 |
| 20260831023008 | 22 | 197 | 0.0 | 0.0 | 0.00 | 0.00 | 0.00 | 86 | 1023.6 |
| 20260831022908 | 22 | 197 | 0.0 | 0.0 | 0.00 | 0.00 | 0.00 | 86 | 1023.6 |
| 20260831022807 | 22 | 197 | 0.0 | 0.0 | 0.00 | 0.00 | 0.00 | 87 | 1023.6 |
| 20260831022704 | 22 | 197 | 0.0 | 0.0 | 0.00 | 0.00 | 0.00 | 87 | 1023.6 |
| 20260831022606 | 22 | 202 | 0.0 | 0.0 | 0.00 | 0.00 | 0.00 | 87 | 1023.7 |
| 20260831022502 | 22 | 202 | 0.0 | 0.0 | 0.00 | 0.00 | 0.00 | 87 | 1023.7 |
| 20260831022354 | 22 | 202 | 0.0 | 0.0 | 0.00 | 0.00 | 0.00 | 86 | 1023.7 |
| 20260831022254 | 22 | 202 | 0.0 | 0.0 | 0.00 | 0.00 | 0.00 | 86 | 1023.7 |
| 20260831022152 | 22 | 202 | 0.0 | 0.0 | 0.00 | 0.00 | 0.00 | 86 | 1023.7 |
| 20260831022052 | 22 | 201 | 0.0 | 0.0 | 0.00 | 0.00 | 0.00 | 86 | 1023.6 |
| 20260831021953 | 22 | 201 | 0.0 | 0.0 | 0.00 | 0.00 | 0.00 | 86 | 1023.6 |
| 20260831021852 | 22 | 193 | 0.0 | 0.0 | 0.00 | 0.00 | 0.00 | 86 | 1023.7 |
| 20260831021750 | 22 | 193 | 0.0 | 0.0 | 0.00 | 0.00 | 0.00 | 86 | 1023.6 |
| 20260831021651 | 22 | 193 | 0.0 | 0.0 | 0.00 | 0.00 | 0.00 | 86 | 1023.6 |
| 20260831021549 | 22 | 193 | 0.0 | 0.0 | 0.00 | 0.00 | 0.00 | 86 | 1023.5 |
| 20260831021447 | 22 | 193 | 0.0 | 0.0 | 0.00 | 0.00 | 0.00 | 86 | 1023.6 |
| 20260831021347 | 22 | 193 | 0.0 | 0.0 | 0.00 | 0.00 | 0.00 | 86 | 1023.6 |
| 20260831021244 | 22 | 193 | 0.0 | 0.0 | 0.00 | 0.00 | 0.00 | 86 | 1023.5 |
| 20260831021144 | 22 | 194 | 0.0 | 0.0 | 0.00 | 0.00 | 0.00 | 86 | 1023.5 |
| 20260831021043 | 22 | 215 | 0.0 | 0.0 | 0.00 | 0.00 | 0.00 | 86 | 1023.5 |
| 20260831020940 | 22 | 187 | 0.0 | 0.0 | 0.00 | 0.00 | 0.00 | 87 | 1023.3 |
| 20260831020832 | 22 | 202 | 0.0 | 0.0 | 0.00 | 0.00 | 0.00 | 87 | 1023.3 |
| 20260831020731 | 22 | 202 | 0.0 | 0.0 | 0.00 | 0.00 | 0.00 | 86 | 1023.5 |
| 20260831020630 | 22 | 206 | 0.0 | 0.0 | 0.00 | 0.00 | 0.00 | 86 | 1023.5 |
| 20260831020531 | 22 | 201 | 0.0 | 0.0 | 0.00 | 0.00 | 0.00 | 87 | 1023.5 |
| 20260831020430 | 22 | 196 | 0.0 | 0.0 | 0.00 | 0.00 | 0.00 | 87 | 1023.5 |
| 20260831020332 | 22 | 200 | 0.0 | 0.0 | 0.00 | 0.00 | 0.00 | 87 | 1023.5 |
| 20260831020228 | 22 | 182 | 0.0 | 0.0 | 0.00 | 0.00 | 0.00 | 87 | 1023.3 |
| 20260831020129 | 22 | 182 | 0.0 | 0.0 | 0.00 | 0.00 | 0.00 | 87 | 1023.6 |
| 20260831020026 | 22 | 188 | 0.0 | 0.0 | 0.00 | 0.00 | 0.00 | 87 | 1023.5 |
| 20260831015925 | 22 | 188 | 0.0 | 0.0 | 0.00 | 0.00 | 0.00 | 87 | 1023.5 |
| 20260831015824 | 22 | 190 | 0.0 | 0.0 | 0.00 | 0.00 | 0.00 | 87 | 1023.5 |
| 20260831015723 | 22 | 190 | 0.0 | 0.0 | 0.00 | 0.00 | 0.00 | 87 | 1023.6 |
| 20260831015620 | 22 | 189 | 0.0 | 0.0 | 0.00 | 0.00 | 0.00 | 87 | 1023.5 |
| 20260831015521 | 22 | 180 | 0.0 | 0.0 | 0.00 | 0.00 | 0.00 | 87 | 1023.6 |
| 20260831015420 | 22 | 179 | 0.0 | 0.0 | 0.00 | 0.00 | 0.00 | 87 | 1023.6 |
| 20260831015320 | 22 | 179 | 0.0 | 0.0 | 0.00 | 0.00 | 0.00 | 87 | 1023.6 |
| 20260831015220 | 22 | 178 | 0.0 | 0.0 | 0.00 | 0.00 | 0.00 | 87 | 1023.6 |
| 20260831015119 | 22 | 176 | 0.0 | 0.0 | 0.00 | 0.00 | 0.00 | 87 | 1023.6 |
| 20260831015019 | 22 | 186 | 0.0 | 0.0 | 0.00 | 0.00 | 0.00 | 87 | 1023.7 |
| 20260831014918 | 22 | 186 | 0.0 | 0.0 | 0.00 | 0.00 | 0.00 | 87 | 1023.7 |
| 20260831014816 | 22 | 192 | 0.0 | 0.0 | 0.00 | 0.00 | 0.00 | 87 | 1023.6 |
| 20260831014715 | 22 | 192 | 0.0 | 0.0 | 0.00 | 0.00 | 0.00 | 87 | 1023.6 |
| 20260831014611 | 22 | 190 | 0.0 | 0.0 | 0.00 | 0.00 | 0.00 | 87 | 1023.6 |
| 20260831014513 | 22 | 194 | 0.0 | 0.0 | 0.00 | 0.00 | 0.00 | 87 | 1023.6 |
| 20260831014412 | 22 | 195 | 0.0 | 0.0 | 0.00 | 0.00 | 0.00 | 87 | 1023.6 |
| 20260831014313 | 22 | 197 | 0.0 | 0.0 | 0.00 | 0.00 | 0.00 | 87 | 1023.6 |
| 20260831014213 | 22 | 202 | 0.0 | 0.0 | 0.00 | 0.00 | 0.00 | 87 | 1023.6 |
| 20260831014113 | 22 | 171 | 0.0 | 0.0 | 0.00 | 0.00 | 0.00 | 87 | 1023.5 |
| 20260831014011 | 22 | 185 | 0.0 | 0.0 | 0.00 | 0.00 | 0.00 | 87 | 1023.6 |
| 20260831013910 | 22 | 192 | 0.0 | 0.0 | 0.00 | 0.00 | 0.00 | 87 | 1023.5 |
| 20260831013810 | 22 | 180 | 0.0 | 0.0 | 0.00 | 0.00 | 0.00 | 87 | 1023.6 |
| 20260831013710 | 22 | 180 | 0.0 | 0.0 | 0.00 | 0.00 | 0.00 | 87 | 1023.5 |
| 20260831013604 | 22 | 181 | 0.0 | 0.0 | 0.00 | 0.00 | 0.00 | 87 | 1023.6 |
| 20260831013505 | 22 | 182 | 0.0 | 0.0 | 0.00 | 0.00 | 0.00 | 87 | 1023.5 |
| 20260831013405 | 22 | 182 | 0.0 | 0.0 | 0.00 | 0.00 | 0.00 | 87 | 1023.5 |
| 20260831013305 | 22 | 167 | 0.0 | 0.0 | 0.00 | 0.00 | 0.00 | 87 | 1023.3 |
| 20260831013205 | 22 | 198 | 0.0 | 0.0 | 0.00 | 0.00 | 0.00 | 87 | 1023.3 |
| 20260831013104 | 22 | 198 | 0.0 | 0.0 | 0.00 | 0.00 | 0.00 | 87 | 1023.3 |
| 20260831013002 | 22 | 198 | 0.0 | 0.0 | 0.00 | 0.00 | 0.00 | 87 | 1023.3 |
| 20260831012902 | 22 | 198 | 0.0 | 0.0 | 0.00 | 0.00 | 0.00 | 87 | 1023.5 |
| 20260831012800 | 22 | 198 | 0.0 | 0.0 | 0.00 | 0.00 | 0.00 | 87 | 1023.3 |
| 20260831012658 | 22 | 201 | 0.0 | 0.0 | 0.00 | 0.00 | 0.00 | 87 | 1023.3 |
| 20260831012558 | 22 | 193 | 0.0 | 0.0 | 0.00 | 0.00 | 0.00 | 87 | 1023.3 |
| 20260831012457 | 22 | 184 | 0.0 | 0.0 | 0.00 | 0.00 | 0.00 | 87 | 1023.3 |
| 20260831012356 | 22 | 184 | 0.0 | 0.0 | 0.00 | 0.00 | 0.00 | 87 | 1023.2 |
| 20260831012257 | 22 | 184 | 0.0 | 0.0 | 0.00 | 0.00 | 0.00 | 87 | 1023.1 |
| 20260831012156 | 22 | 179 | 0.0 | 0.0 | 0.00 | 0.00 | 0.00 | 87 | 1023.1 |
| 20260831012058 | 22 | 175 | 0.0 | 0.0 | 0.00 | 0.00 | 0.00 | 87 | 1023.1 |
| 20260831011954 | 22 | 175 | 0.0 | 0.0 | 0.00 | 0.00 | 0.00 | 87 | 1023.1 |
| 20260831011854 | 22 | 176 | 0.0 | 0.0 | 0.00 | 0.00 | 0.00 | 87 | 1023.0 |
| 20260831011752 | 22 | 175 | 0.0 | 0.0 | 0.00 | 0.00 | 0.00 | 87 | 1023.0 |
| 20260831011652 | 22 | 175 | 0.0 | 0.0 | 0.00 | 0.00 | 0.00 | 87 | 1023.0 |
| 20260831011552 | 22 | 181 | 0.0 | 0.0 | 0.00 | 0.00 | 0.00 | 87 | 1023.0 |
| 20260831011452 | 22 | 184 | 0.0 | 0.0 | 0.00 | 0.00 | 0.00 | 87 | 1023.0 |
| 20260831011352 | 22 | 184 | 0.0 | 0.0 | 0.00 | 0.00 | 0.00 | 87 | 1023.0 |
| 20260831011250 | 22 | 184 | 0.0 | 0.0 | 0.00 | 0.00 | 0.00 | 87 | 1023.0 |
| 20260831011152 | 22 | 186 | 0.0 | 0.0 | 0.00 | 0.00 | 0.00 | 87 | 1022.9 |
| 20260831011049 | 22 | 186 | 0.0 | 0.0 | 0.00 | 0.00 | 0.00 | 87 | 1023.0 |
| 20260831010947 | 22 | 142 | 0.0 | 0.0 | 0.00 | 0.00 | 0.00 | 87 | 1023.0 |
| 20260831010846 | 22 | 180 | 0.0 | 0.0 | 0.00 | 0.00 | 0.00 | 87 | 1023.0 |
| 20260831010744 | 22 | 180 | 0.0 | 0.0 | 0.00 | 0.00 | 0.00 | 88 | 1023.0 |
| 20260831010644 | 22 | 179 | 0.0 | 0.0 | 0.00 | 0.00 | 0.00 | 87 | 1023.0 |
| 20260831010546 | 22 | 179 | 0.0 | 0.0 | 0.00 | 0.00 | 0.00 | 87 | 1023.0 |
| 20260831010444 | 22 | 179 | 0.0 | 0.0 | 0.00 | 0.00 | 0.00 | 87 | 1022.9 |
| 20260831010342 | 22 | 179 | 0.0 | 0.0 | 0.00 | 0.00 | 0.00 | 87 | 1023.0 |
| 20260831010243 | 22 | 180 | 0.0 | 0.0 | 0.00 | 0.00 | 0.00 | 87 | 1023.0 |
| 20260831010143 | 22 | 176 | 0.0 | 0.0 | 0.00 | 0.00 | 0.00 | 87 | 1022.9 |
| 20260831010041 | 22 | 176 | 0.0 | 0.0 | 0.00 | 0.00 | 0.00 | 87 | 1022.9 |
| 20260831005939 | 22 | 176 | 0.0 | 0.0 | 0.00 | 0.00 | 0.00 | 87 | 1022.9 |
| 20260831005839 | 22 | 175 | 0.0 | 0.0 | 0.00 | 0.00 | 0.00 | 87 | 1022.8 |
| 20260831005736 | 22 | 175 | 0.0 | 0.0 | 0.00 | 0.00 | 0.00 | 87 | 1022.8 |
| 20260831005638 | 22 | 175 | 0.0 | 0.0 | 0.00 | 0.00 | 0.00 | 87 | 1022.8 |
| 20260831005534 | 22 | 176 | 0.0 | 0.0 | 0.00 | 0.00 | 0.00 | 87 | 1022.7 |
| 20260831005433 | 22 | 176 | 0.0 | 0.0 | 0.00 | 0.00 | 0.00 | 87 | 1022.8 |
| 20260831005327 | 22 | 176 | 0.0 | 0.0 | 0.00 | 0.00 | 0.00 | 87 | 1022.7 |
| 20260831005226 | 22 | 175 | 0.0 | 0.0 | 0.00 | 0.00 | 0.00 | 87 | 1022.7 |
| 20260831005125 | 22 | 179 | 0.0 | 0.0 | 0.00 | 0.00 | 0.00 | 87 | 1022.8 |
| 20260831005025 | 22 | 189 | 0.0 | 0.0 | 0.00 | 0.00 | 0.00 | 87 | 1022.7 |
| 20260831004923 | 22 | 188 | 0.0 | 0.0 | 0.00 | 0.00 | 0.00 | 87 | 1022.7 |
| 20260831004823 | 22 | 188 | 0.0 | 0.0 | 0.00 | 0.00 | 0.00 | 87 | 1022.7 |
| 20260831004720 | 22 | 188 | 0.0 | 0.0 | 0.00 | 0.00 | 0.00 | 87 | 1022.7 |
| 20260831004621 | 22 | 188 | 0.0 | 0.0 | 0.00 | 0.00 | 0.00 | 87 | 1022.6 |
| 20260831004519 | 22 | 188 | 0.0 | 0.0 | 0.00 | 0.00 | 0.00 | 87 | 1022.7 |
| 20260831004416 | 22 | 188 | 0.0 | 0.0 | 0.00 | 0.00 | 0.00 | 87 | 1022.6 |
| 20260831004317 | 22 | 188 | 0.0 | 0.0 | 0.00 | 0.00 | 0.00 | 87 | 1022.6 |
| 20260831004214 | 22 | 188 | 0.0 | 0.0 | 0.00 | 0.00 | 0.00 | 87 | 1022.6 |
| 20260831004113 | 22 | 188 | 0.0 | 0.0 | 0.00 | 0.00 | 0.00 | 87 | 1022.6 |
| 20260831004013 | 22 | 188 | 0.0 | 0.0 | 0.00 | 0.00 | 0.00 | 87 | 1022.6 |
| 20260831003910 | 22 | 189 | 0.0 | 0.0 | 0.00 | 0.00 | 0.00 | 87 | 1022.7 |
| 20260831003805 | 22 | 189 | 0.0 | 0.0 | 0.00 | 0.00 | 0.00 | 87 | 1022.7 |
| 20260831003704 | 22 | 189 | 0.0 | 0.0 | 0.00 | 0.00 | 0.00 | 87 | 1022.6 |
| 20260831003604 | 22 | 198 | 0.0 | 0.0 | 0.00 | 0.00 | 0.00 | 87 | 1022.7 |
| 20260831003506 | 22 | 167 | 0.0 | 0.0 | 0.00 | 0.00 | 0.00 | 87 | 1022.7 |
| 20260831003404 | 22 | 173 | 0.0 | 0.0 | 0.00 | 0.00 | 0.00 | 87 | 1022.6 |
| 20260831003303 | 22 | 176 | 0.0 | 0.0 | 0.00 | 0.00 | 0.00 | 87 | 1022.6 |
| 20260831003205 | 22 | 178 | 0.0 | 0.0 | 0.00 | 0.00 | 0.00 | 87 | 1022.7 |
| 20260831003104 | 22 | 178 | 0.0 | 0.0 | 0.00 | 0.00 | 0.00 | 87 | 1022.6 |
| 20260831003005 | 22 | 178 | 0.0 | 0.0 | 0.00 | 0.00 | 0.00 | 87 | 1022.6 |
| 20260831002904 | 22 | 178 | 0.0 | 0.0 | 0.00 | 0.00 | 0.00 | 87 | 1022.6 |
| 20260831002804 | 22 | 178 | 0.0 | 0.0 | 0.00 | 0.00 | 0.00 | 87 | 1022.6 |
| 20260831002705 | 22 | 180 | 0.0 | 0.0 | 0.00 | 0.00 | 0.00 | 87 | 1022.6 |
| 20260831002604 | 22 | 195 | 0.0 | 0.0 | 0.00 | 0.00 | 0.00 | 87 | 1022.6 |
| 20260831002504 | 22 | 196 | 0.0 | 0.0 | 0.00 | 0.00 | 0.00 | 87 | 1022.6 |
| 20260831002403 | 22 | 198 | 0.0 | 0.0 | 0.00 | 0.00 | 0.00 | 87 | 1022.6 |
| 20260831002306 | 22 | 181 | 0.0 | 0.0 | 0.00 | 0.00 | 0.00 | 87 | 1022.6 |
| 20260831002203 | 23 | 174 | 0.0 | 0.0 | 0.00 | 0.00 | 0.00 | 87 | 1022.6 |
| 20260831002058 | 23 | 174 | 0.0 | 0.0 | 0.00 | 0.00 | 0.00 | 87 | 1022.6 |
| 20260831001957 | 23 | 174 | 0.0 | 0.0 | 0.00 | 0.00 | 0.00 | 87 | 1022.7 |
| 20260831001857 | 23 | 174 | 0.0 | 0.0 | 0.00 | 0.00 | 0.00 | 86 | 1022.6 |
| 20260831001757 | 23 | 174 | 0.0 | 0.0 | 0.00 | 0.00 | 0.00 | 86 | 1022.6 |
| 20260831001656 | 23 | 169 | 0.0 | 0.0 | 0.00 | 0.00 | 0.00 | 86 | 1022.5 |
| 20260831001557 | 23 | 180 | 0.0 | 0.0 | 0.00 | 0.00 | 0.00 | 87 | 1022.5 |
| 20260831001456 | 23 | 150 | 0.0 | 0.0 | 0.00 | 0.00 | 0.00 | 87 | 1022.6 |
| 20260831001356 | 23 | 207 | 0.0 | 0.0 | 0.00 | 0.00 | 0.00 | 87 | 1022.6 |
| 20260831001257 | 23 | 207 | 0.0 | 0.0 | 0.00 | 0.00 | 0.00 | 87 | 1022.6 |
| 20260831001157 | 23 | 206 | 0.0 | 0.0 | 0.00 | 0.00 | 0.00 | 86 | 1022.6 |
| 20260831001054 | 23 | 207 | 0.0 | 0.0 | 0.00 | 0.00 | 0.00 | 86 | 1022.6 |
| 20260831000952 | 23 | 194 | 0.0 | 0.0 | 0.00 | 0.00 | 0.00 | 86 | 1022.5 |
| 20260831000850 | 23 | 169 | 0.0 | 0.0 | 0.00 | 0.00 | 0.00 | 86 | 1022.5 |
| 20260831000750 | 23 | 169 | 0.0 | 0.0 | 0.00 | 0.00 | 0.00 | 86 | 1022.5 |
| 20260831000649 | 23 | 169 | 0.0 | 0.0 | 0.00 | 0.00 | 0.00 | 86 | 1022.5 |
| 20260831000549 | 23 | 167 | 0.0 | 0.0 | 0.00 | 0.00 | 0.00 | 86 | 1022.5 |
| 20260831000447 | 23 | 188 | 0.0 | 0.0 | 0.00 | 0.00 | 0.00 | 86 | 1022.5 |
| 20260831000347 | 23 | 188 | 0.0 | 0.0 | 0.00 | 0.00 | 0.00 | 86 | 1022.5 |
| 20260831000248 | 23 | 188 | 0.0 | 0.0 | 0.00 | 0.00 | 0.00 | 86 | 1022.7 |
| 20260831000147 | 23 | 188 | 0.0 | 0.0 | 0.00 | 0.00 | 0.00 | 86 | 1022.5 |
| 20260831000047 | 23 | 188 | 0.0 | 0.0 | 0.00 | 0.00 | 0.00 | 86 | 1022.5 |
| 20260830235945 | 23 | 189 | 0.0 | 0.0 | 0.00 | 0.00 | 0.00 | 86 | 1022.5 |
| 20260830235845 | 23 | 205 | 0.0 | 0.0 | 0.00 | 0.00 | 0.00 | 87 | 1022.5 |
| 20260830235742 | 23 | 202 | 0.0 | 0.0 | 0.00 | 0.00 | 0.00 | 87 | 1022.4 |
| 20260830235643 | 23 | 202 | 0.0 | 0.0 | 0.00 | 0.00 | 0.00 | 86 | 1022.5 |
| 20260830235541 | 23 | 202 | 0.0 | 0.0 | 0.00 | 0.00 | 0.00 | 86 | 1022.6 |
| 20260830235440 | 23 | 208 | 0.0 | 0.0 | 0.00 | 0.00 | 0.00 | 86 | 1022.5 |
| 20260830235337 | 23 | 216 | 0.0 | 0.0 | 0.00 | 0.00 | 0.00 | 86 | 1022.6 |
| 20260830235239 | 23 | 217 | 0.0 | 0.0 | 0.00 | 0.00 | 0.00 | 86 | 1022.6 |
| 20260830235139 | 23 | 217 | 0.0 | 0.0 | 0.00 | 0.00 | 0.00 | 86 | 1022.6 |
| 20260830235039 | 23 | 217 | 0.0 | 0.0 | 0.00 | 0.00 | 0.00 | 86 | 1022.5 |
| 20260830234937 | 23 | 217 | 0.0 | 0.0 | 0.00 | 0.00 | 0.00 | 86 | 1022.5 |
| 20260830234837 | 23 | 217 | 0.0 | 0.0 | 0.00 | 0.00 | 0.00 | 86 | 1022.5 |
| 20260830234734 | 23 | 217 | 0.0 | 0.0 | 0.00 | 0.00 | 0.00 | 86 | 1022.5 |
| 20260830234635 | 23 | 217 | 0.0 | 0.0 | 0.00 | 0.00 | 0.00 | 86 | 1022.6 |
| 20260830234533 | 23 | 217 | 0.0 | 0.0 | 0.00 | 0.00 | 0.00 | 86 | 1022.5 |
| 20260830234431 | 23 | 217 | 0.0 | 0.0 | 0.00 | 0.00 | 0.00 | 86 | 1022.5 |
| 20260830234331 | 23 | 217 | 0.0 | 0.0 | 0.00 | 0.00 | 0.00 | 86 | 1022.5 |
| 20260830234229 | 23 | 217 | 0.0 | 0.0 | 0.00 | 0.00 | 0.00 | 86 | 1022.6 |
| 20260830234129 | 23 | 217 | 0.0 | 0.0 | 0.00 | 0.00 | 0.00 | 86 | 1022.5 |
| 20260830234027 | 23 | 217 | 0.0 | 0.0 | 0.00 | 0.00 | 0.00 | 86 | 1022.5 |
| 20260830233925 | 23 | 217 | 0.0 | 0.0 | 0.00 | 0.00 | 0.00 | 86 | 1022.5 |
| 20260830233817 | 23 | 217 | 0.0 | 0.0 | 0.00 | 0.00 | 0.00 | 85 | 1022.5 |
| 20260830233718 | 23 | 217 | 0.0 | 0.0 | 0.00 | 0.00 | 0.00 | 85 | 1022.6 |
| 20260830233616 | 23 | 217 | 0.0 | 0.0 | 0.00 | 0.00 | 0.00 | 85 | 1022.6 |
| 20260830233517 | 23 | 217 | 0.0 | 0.0 | 0.00 | 0.00 | 0.00 | 85 | 1022.5 |
| 20260830233414 | 23 | 217 | 0.0 | 0.0 | 0.00 | 0.00 | 0.00 | 85 | 1022.5 |
| 20260830233308 | 23 | 217 | 0.0 | 0.0 | 0.00 | 0.00 | 0.00 | 85 | 1022.6 |
| 20260830233208 | 23 | 217 | 0.0 | 0.0 | 0.00 | 0.00 | 0.00 | 85 | 1022.6 |
| 20260830233109 | 24 | 228 | 0.0 | 0.0 | 0.00 | 0.00 | 0.00 | 85 | 1022.5 |
| 20260830233007 | 24 | 238 | 0.0 | 0.0 | 0.00 | 0.00 | 0.00 | 85 | 1022.5 |
| 20260830232908 | 24 | 267 | 0.0 | 0.0 | 0.00 | 0.00 | 0.00 | 85 | 1022.5 |
| 20260830232805 | 24 | 269 | 0.0 | 0.0 | 0.00 | 0.00 | 0.00 | 85 | 1022.5 |
| 20260830232707 | 24 | 269 | 0.0 | 0.0 | 0.00 | 0.00 | 0.00 | 85 | 1022.6 |
| 20260830232606 | 24 | 269 | 0.0 | 0.0 | 0.00 | 0.00 | 0.00 | 84 | 1022.6 |
| 20260830232505 | 24 | 271 | 0.0 | 0.0 | 0.00 | 0.00 | 0.00 | 84 | 1022.6 |
| 20260830232404 | 24 | 280 | 0.0 | 0.0 | 0.00 | 0.00 | 0.00 | 84 | 1022.6 |
| 20260830232306 | 24 | 211 | 0.0 | 0.0 | 0.00 | 0.00 | 0.00 | 84 | 1022.6 |
| 20260830232204 | 24 | 211 | 0.0 | 0.0 | 0.00 | 0.00 | 0.00 | 84 | 1022.6 |
| 20260830232104 | 24 | 229 | 0.0 | 0.0 | 0.00 | 0.00 | 0.00 | 84 | 1022.5 |
| 20260830232005 | 24 | 199 | 0.0 | 0.0 | 0.00 | 0.00 | 0.00 | 84 | 1022.6 |
| 20260830231905 | 24 | 11 | 0.0 | 0.0 | 0.00 | 0.00 | 0.00 | 84 | 1022.6 |
| 20260830231804 | 24 | 69 | 0.0 | 0.0 | 0.00 | 0.00 | 0.00 | 84 | 1022.6 |
| 20260830231702 | 24 | 68 | 0.0 | 0.0 | 0.00 | 0.00 | 0.00 | 83 | 1022.7 |
| 20260830231602 | 24 | 101 | 0.0 | 0.0 | 0.00 | 0.00 | 0.00 | 83 | 1022.7 |
| 20260830231500 | 24 | 134 | 0.0 | 0.0 | 0.00 | 0.00 | 0.00 | 83 | 1022.7 |
| 20260830231400 | 24 | 103 | 0.0 | 0.0 | 0.00 | 0.00 | 0.00 | 83 | 1022.7 |
| 20260830231300 | 24 | 103 | 0.0 | 0.0 | 0.00 | 0.00 | 0.00 | 84 | 1022.7 |
| 20260830231200 | 24 | 103 | 0.0 | 0.0 | 0.00 | 0.00 | 0.00 | 84 | 1022.7 |
| 20260830231101 | 24 | 103 | 0.0 | 0.0 | 0.00 | 0.00 | 0.00 | 83 | 1022.7 |
| 20260830230958 | 25 | 103 | 0.0 | 0.0 | 0.00 | 0.00 | 0.00 | 83 | 1022.6 |
| 20260830230858 | 25 | 145 | 0.0 | 0.0 | 0.00 | 0.00 | 0.00 | 83 | 1022.6 |
| 20260830230757 | 25 | 128 | 0.0 | 0.0 | 0.00 | 0.00 | 0.00 | 83 | 1022.6 |
| 20260830230655 | 25 | 128 | 0.0 | 0.0 | 0.00 | 0.00 | 0.00 | 83 | 1022.6 |
| 20260830230548 | 25 | 127 | 0.0 | 0.0 | 0.00 | 0.00 | 0.00 | 83 | 1022.6 |
| 20260830230449 | 25 | 127 | 0.0 | 0.0 | 0.00 | 0.00 | 0.00 | 83 | 1022.5 |
| 20260830230348 | 25 | 127 | 0.0 | 0.0 | 0.00 | 0.00 | 0.00 | 83 | 1022.6 |
| 20260830230247 | 25 | 121 | 0.0 | 0.0 | 0.00 | 0.00 | 0.00 | 83 | 1022.5 |
| 20260830230144 | 25 | 170 | 0.0 | 0.0 | 0.00 | 0.00 | 0.00 | 83 | 1022.5 |
| 20260830230045 | 25 | 182 | 0.0 | 0.0 | 0.00 | 0.00 | 0.00 | 83 | 1022.5 |
| 20260830225942 | 25 | 186 | 0.0 | 0.0 | 0.00 | 0.00 | 0.00 | 83 | 1022.5 |
| 20260830225843 | 25 | 185 | 0.0 | 0.0 | 0.00 | 0.00 | 0.00 | 83 | 1022.5 |
| 20260830225740 | 25 | 185 | 0.0 | 0.0 | 0.00 | 0.00 | 0.00 | 83 | 1022.5 |
| 20260830225638 | 25 | 185 | 0.0 | 0.0 | 0.00 | 0.00 | 0.00 | 82 | 1022.5 |
| 20260830225538 | 25 | 185 | 0.0 | 0.0 | 0.00 | 0.00 | 0.00 | 82 | 1022.6 |
| 20260830225437 | 25 | 186 | 0.0 | 0.0 | 0.00 | 0.00 | 0.00 | 82 | 1022.5 |
| 20260830225335 | 25 | 185 | 0.0 | 0.0 | 0.00 | 0.00 | 0.00 | 81 | 1022.5 |
| 20260830225235 | 25 | 184 | 0.0 | 0.0 | 0.00 | 0.00 | 0.00 | 82 | 1022.4 |
| 20260830225132 | 25 | 162 | 0.0 | 0.0 | 0.00 | 0.00 | 0.00 | 82 | 1022.5 |
| 20260830225027 | 25 | 162 | 0.0 | 0.0 | 0.00 | 0.00 | 0.00 | 81 | 1022.5 |
| 20260830224926 | 25 | 161 | 0.0 | 0.0 | 0.00 | 0.00 | 0.00 | 81 | 1022.4 |
| 20260830224827 | 25 | 165 | 0.0 | 0.0 | 0.00 | 0.00 | 0.00 | 81 | 1022.4 |
| 20260830224725 | 25 | 256 | 0.0 | 0.0 | 0.00 | 0.00 | 0.00 | 81 | 1022.4 |
| 20260830224623 | 25 | 256 | 0.0 | 0.0 | 0.00 | 0.00 | 0.00 | 81 | 1022.4 |
| 20260830224522 | 25 | 180 | 0.0 | 0.0 | 0.00 | 0.00 | 0.00 | 81 | 1022.4 |
| 20260830224421 | 25 | 186 | 0.0 | 0.0 | 0.00 | 0.00 | 0.00 | 81 | 1022.3 |
| 20260830224320 | 25 | 182 | 0.0 | 0.0 | 0.00 | 0.00 | 0.00 | 81 | 1022.4 |
| 20260830224219 | 25 | 183 | 0.0 | 0.0 | 0.00 | 0.00 | 0.00 | 81 | 1022.4 |
| 20260830224117 | 25 | 183 | 0.0 | 0.0 | 0.00 | 0.00 | 0.00 | 81 | 1022.3 |
| 20260830224016 | 25 | 184 | 0.0 | 0.0 | 0.00 | 0.00 | 0.00 | 81 | 1022.4 |
| 20260830223915 | 25 | 182 | 0.0 | 0.0 | 0.00 | 0.00 | 0.00 | 81 | 1022.3 |
| 20260830223811 | 25 | 177 | 0.0 | 0.0 | 0.00 | 0.00 | 0.00 | 81 | 1022.3 |
| 20260830223713 | 25 | 166 | 0.0 | 0.0 | 0.00 | 0.00 | 0.00 | 81 | 1022.3 |
| 20260830223611 | 25 | 167 | 0.0 | 0.0 | 0.00 | 0.00 | 0.00 | 80 | 1022.3 |
| 20260830223505 | 25 | 163 | 0.0 | 0.0 | 0.00 | 0.00 | 0.00 | 80 | 1022.3 |
| 20260830223403 | 25 | 166 | 0.0 | 0.0 | 0.00 | 0.00 | 0.00 | 80 | 1022.4 |
| 20260830223305 | 25 | 166 | 0.0 | 0.0 | 0.00 | 0.00 | 0.00 | 80 | 1022.3 |
| 20260830223202 | 25 | 166 | 0.0 | 0.0 | 0.00 | 0.00 | 0.00 | 80 | 1022.4 |
| 20260830223100 | 25 | 165 | 0.0 | 0.0 | 0.00 | 0.00 | 0.00 | 80 | 1022.4 |
| 20260830222957 | 25 | 165 | 0.0 | 0.0 | 0.00 | 0.00 | 0.00 | 79 | 1022.4 |
| 20260830222855 | 26 | 165 | 0.0 | 0.0 | 0.00 | 0.00 | 0.00 | 80 | 1022.4 |
| 20260830222753 | 26 | 160 | 0.0 | 0.0 | 0.00 | 0.00 | 0.00 | 80 | 1022.5 |
| 20260830222655 | 26 | 160 | 0.0 | 0.0 | 0.00 | 0.00 | 0.00 | 80 | 1022.4 |
| 20260830222554 | 26 | 160 | 0.0 | 0.0 | 0.00 | 0.00 | 0.00 | 79 | 1022.5 |
| 20260830222449 | 26 | 160 | 0.0 | 0.0 | 0.00 | 0.00 | 0.00 | 79 | 1022.4 |
| 20260830222351 | 26 | 159 | 0.0 | 0.0 | 0.00 | 0.00 | 0.00 | 78 | 1022.5 |
| 20260830222249 | 26 | 171 | 0.0 | 0.0 | 0.00 | 0.00 | 0.00 | 78 | 1022.4 |
| 20260830222151 | 26 | 170 | 0.0 | 0.0 | 0.00 | 0.00 | 0.00 | 78 | 1022.4 |
| 20260830222048 | 26 | 177 | 0.0 | 0.0 | 0.00 | 0.00 | 0.00 | 78 | 1022.4 |
| 20260830221940 | 26 | 167 | 0.0 | 0.0 | 0.00 | 0.00 | 0.00 | 78 | 1022.4 |
| 20260830221841 | 26 | 190 | 0.0 | 0.0 | 0.00 | 0.00 | 0.00 | 78 | 1022.3 |
| 20260830221739 | 26 | 160 | 0.0 | 0.0 | 0.00 | 0.00 | 0.00 | 78 | 1022.3 |
| 20260830221640 | 26 | 160 | 0.0 | 0.0 | 0.00 | 0.00 | 0.00 | 78 | 1022.4 |
| 20260830221539 | 26 | 140 | 0.0 | 0.0 | 0.00 | 0.00 | 0.00 | 78 | 1022.4 |
| 20260830221438 | 26 | 161 | 0.0 | 0.0 | 0.00 | 0.00 | 0.00 | 78 | 1022.5 |
| 20260830221336 | 26 | 161 | 0.0 | 0.0 | 0.00 | 0.00 | 0.00 | 78 | 1022.5 |
| 20260830221236 | 26 | 163 | 0.0 | 0.0 | 0.00 | 0.00 | 0.00 | 78 | 1022.6 |
| 20260830221135 | 26 | 152 | 0.0 | 0.0 | 0.00 | 0.00 | 0.00 | 78 | 1022.5 |
| 20260830221033 | 26 | 134 | 0.0 | 0.0 | 0.00 | 0.00 | 0.00 | 77 | 1022.5 |
| 20260830220930 | 26 | 133 | 0.0 | 0.0 | 0.00 | 0.00 | 0.00 | 78 | 1022.5 |
| 20260830220831 | 26 | 133 | 0.0 | 0.0 | 0.00 | 0.00 | 0.00 | 78 | 1022.5 |
| 20260830220729 | 26 | 133 | 0.0 | 0.0 | 0.00 | 0.00 | 0.00 | 78 | 1022.5 |
| 20260830220629 | 26 | 132 | 0.0 | 0.0 | 0.00 | 0.00 | 0.00 | 78 | 1022.5 |
| 20260830220526 | 26 | 126 | 0.0 | 0.0 | 0.00 | 0.00 | 0.00 | 78 | 1022.5 |
| 20260830220421 | 26 | 126 | 0.0 | 0.0 | 0.00 | 0.00 | 0.00 | 78 | 1022.4 |
| 20260830220320 | 26 | 126 | 0.0 | 0.0 | 0.00 | 0.00 | 0.00 | 77 | 1022.5 |
| 20260830220220 | 26 | 126 | 0.0 | 0.0 | 0.00 | 0.00 | 0.00 | 77 | 1022.5 |
| 20260830220119 | 26 | 126 | 0.0 | 0.0 | 0.00 | 0.00 | 0.00 | 78 | 1022.5 |
| 20260830220017 | 26 | 126 | 0.0 | 0.0 | 0.00 | 0.00 | 0.00 | 78 | 1022.5 |
| 20260830215916 | 26 | 119 | 0.0 | 0.0 | 0.00 | 0.00 | 0.00 | 78 | 1022.4 |
| 20260830215814 | 26 | 120 | 0.0 | 0.0 | 0.00 | 0.00 | 0.00 | 77 | 1022.5 |
| 20260830215714 | 26 | 119 | 0.0 | 0.0 | 0.00 | 0.00 | 0.00 | 77 | 1022.4 |
| 20260830215613 | 26 | 138 | 0.0 | 0.0 | 0.00 | 0.00 | 0.00 | 78 | 1022.4 |
| 20260830215510 | 26 | 154 | 0.0 | 0.0 | 0.00 | 0.00 | 0.00 | 77 | 1022.4 |
| 20260830215406 | 26 | 123 | 0.0 | 0.0 | 0.00 | 0.00 | 0.00 | 77 | 1022.5 |
| 20260830215306 | 26 | 189 | 0.0 | 0.0 | 0.00 | 0.00 | 0.00 | 77 | 1022.5 |
| 20260830215206 | 26 | 222 | 0.0 | 0.0 | 0.00 | 0.00 | 0.00 | 77 | 1022.5 |
| 20260830215107 | 26 | 181 | 0.0 | 0.0 | 0.00 | 0.00 | 0.00 | 77 | 1022.6 |
| 20260830215005 | 26 | 197 | 0.0 | 0.0 | 0.00 | 0.00 | 0.00 | 77 | 1022.5 |
| 20260830214857 | 26 | 129 | 0.0 | 0.0 | 0.00 | 0.00 | 0.00 | 77 | 1022.6 |
| 20260830214754 | 26 | 128 | 0.0 | 0.0 | 0.00 | 0.00 | 0.00 | 77 | 1022.6 |
| 20260830214655 | 26 | 129 | 0.0 | 0.0 | 0.00 | 0.00 | 0.00 | 77 | 1022.5 |
| 20260830214555 | 26 | 157 | 0.0 | 0.0 | 0.00 | 0.00 | 0.00 | 77 | 1022.6 |
| 20260830214454 | 27 | 172 | 0.0 | 0.0 | 0.00 | 0.00 | 0.00 | 77 | 1022.6 |
| 20260830214354 | 27 | 174 | 0.0 | 0.0 | 0.00 | 0.00 | 0.00 | 76 | 1022.6 |
| 20260830214253 | 27 | 182 | 0.0 | 0.0 | 0.00 | 0.00 | 0.00 | 76 | 1022.6 |
| 20260830214155 | 27 | 185 | 0.0 | 0.0 | 0.00 | 0.00 | 0.00 | 77 | 1022.6 |
| 20260830214054 | 27 | 186 | 0.0 | 0.0 | 0.00 | 0.00 | 0.00 | 77 | 1022.5 |
| 20260830213954 | 27 | 190 | 0.0 | 0.0 | 0.00 | 0.00 | 0.00 | 77 | 1022.5 |
| 20260830213853 | 27 | 190 | 0.0 | 0.0 | 0.00 | 0.00 | 0.00 | 76 | 1022.5 |
| 20260830213750 | 27 | 153 | 0.0 | 0.0 | 0.00 | 0.00 | 0.00 | 76 | 1022.4 |
| 20260830213648 | 27 | 162 | 0.0 | 0.0 | 0.00 | 0.00 | 0.00 | 76 | 1022.4 |
| 20260830213547 | 27 | 161 | 0.0 | 0.0 | 0.00 | 0.00 | 0.00 | 76 | 1022.4 |
| 20260830213449 | 27 | 160 | 0.0 | 0.0 | 0.00 | 0.00 | 0.00 | 76 | 1022.5 |
| 20260830213346 | 27 | 157 | 0.0 | 0.0 | 0.00 | 0.00 | 0.00 | 77 | 1022.6 |
| 20260830213244 | 27 | 157 | 0.0 | 0.0 | 0.00 | 0.00 | 0.00 | 77 | 1022.6 |
| 20260830213144 | 27 | 150 | 0.0 | 0.0 | 0.00 | 0.00 | 0.00 | 78 | 1022.6 |
| 20260830213042 | 27 | 175 | 0.0 | 0.0 | 0.00 | 0.00 | 0.00 | 77 | 1022.5 |
| 20260830212942 | 27 | 183 | 0.0 | 0.0 | 0.00 | 0.00 | 0.00 | 78 | 1022.5 |
| 20260830212840 | 27 | 184 | 0.0 | 0.0 | 0.00 | 0.00 | 0.00 | 77 | 1022.4 |
| 20260830212738 | 27 | 184 | 0.0 | 0.0 | 0.00 | 0.00 | 0.00 | 78 | 1022.5 |
| 20260830212638 | 27 | 184 | 0.0 | 0.0 | 0.00 | 0.00 | 0.00 | 79 | 1022.6 |
| 20260830212536 | 27 | 184 | 0.0 | 0.0 | 0.00 | 0.00 | 0.00 | 78 | 1022.5 |
| 20260830212434 | 27 | 185 | 0.0 | 0.0 | 0.00 | 0.00 | 0.00 | 78 | 1022.6 |
| 20260830212333 | 27 | 185 | 0.0 | 0.0 | 0.00 | 0.00 | 0.00 | 78 | 1022.6 |
| 20260830212235 | 27 | 185 | 0.0 | 0.0 | 0.00 | 0.00 | 0.00 | 78 | 1022.5 |
| 20260830212133 | 27 | 185 | 0.0 | 0.0 | 0.00 | 0.00 | 0.00 | 77 | 1022.5 |
| 20260830212034 | 27 | 185 | 0.0 | 0.0 | 0.00 | 0.00 | 0.00 | 77 | 1022.5 |
| 20260830211934 | 27 | 185 | 0.0 | 0.0 | 0.00 | 0.00 | 0.00 | 77 | 1022.5 |
| 20260830211833 | 27 | 191 | 0.0 | 0.0 | 0.00 | 0.00 | 0.00 | 77 | 1022.4 |
| 20260830211735 | 27 | 198 | 0.0 | 0.0 | 0.00 | 0.00 | 0.00 | 77 | 1022.5 |
| 20260830211633 | 27 | 198 | 0.0 | 0.0 | 0.00 | 0.00 | 0.00 | 76 | 1022.4 |
| 20260830211533 | 27 | 126 | 0.0 | 0.0 | 0.00 | 0.00 | 0.00 | 77 | 1022.5 |
| 20260830211430 | 27 | 152 | 0.0 | 0.0 | 0.00 | 0.00 | 0.00 | 77 | 1022.5 |
| 20260830211331 | 27 | 153 | 0.0 | 0.0 | 0.00 | 0.00 | 0.00 | 77 | 1022.5 |
| 20260830211228 | 27 | 186 | 0.0 | 0.0 | 0.00 | 0.00 | 0.00 | 76 | 1022.6 |
| 20260830211123 | 27 | 177 | 0.0 | 0.0 | 0.00 | 0.00 | 0.00 | 76 | 1022.5 |
| 20260830211023 | 27 | 182 | 0.0 | 0.0 | 0.00 | 0.00 | 0.00 | 76 | 1022.4 |
| 20260830210924 | 27 | 190 | 0.0 | 0.0 | 0.00 | 0.00 | 0.00 | 77 | 1022.4 |
| 20260830210824 | 27 | 171 | 0.0 | 0.0 | 0.00 | 0.00 | 0.00 | 77 | 1022.5 |
| 20260830210723 | 27 | 169 | 0.0 | 0.0 | 0.00 | 0.00 | 0.00 | 77 | 1022.5 |
| 20260830210619 | 27 | 180 | 0.0 | 0.0 | 0.00 | 0.00 | 0.00 | 76 | 1022.5 |
| 20260830210521 | 27 | 148 | 0.0 | 0.0 | 0.00 | 0.00 | 0.00 | 77 | 1022.5 |
| 20260830210417 | 27 | 196 | 0.0 | 0.0 | 0.00 | 0.00 | 0.00 | 77 | 1022.5 |
| 20260830210318 | 27 | 162 | 0.0 | 0.0 | 0.00 | 0.00 | 0.00 | 78 | 1022.5 |
| 20260830210218 | 27 | 205 | 0.0 | 0.0 | 0.00 | 0.00 | 0.00 | 78 | 1022.5 |
| 20260830210119 | 27 | 132 | 0.0 | 0.0 | 0.00 | 0.00 | 0.00 | 76 | 1022.5 |
| 20260830210017 | 27 | 154 | 0.0 | 0.0 | 0.00 | 0.00 | 0.00 | 77 | 1022.5 |
| 20260830205919 | 27 | 133 | 0.0 | 0.0 | 0.00 | 0.00 | 0.00 | 76 | 1022.4 |
| 20260830205817 | 27 | 140 | 0.0 | 0.0 | 0.00 | 0.00 | 0.00 | 77 | 1022.6 |
| 20260830205718 | 27 | 202 | 0.0 | 0.0 | 0.00 | 0.00 | 0.00 | 77 | 1022.5 |
| 20260830205619 | 27 | 155 | 0.0 | 0.0 | 0.00 | 0.00 | 0.00 | 76 | 1022.5 |
| 20260830205516 | 27 | 136 | 0.0 | 0.0 | 0.00 | 0.00 | 0.00 | 76 | 1022.6 |
| 20260830205416 | 27 | 135 | 0.0 | 0.0 | 0.00 | 0.00 | 0.00 | 75 | 1022.6 |
| 20260830205315 | 27 | 135 | 0.0 | 0.0 | 0.00 | 0.00 | 0.00 | 75 | 1022.6 |
| 20260830205213 | 27 | 135 | 0.0 | 0.0 | 0.00 | 0.00 | 0.00 | 75 | 1022.6 |
| 20260830205113 | 27 | 139 | 0.0 | 0.0 | 0.00 | 0.00 | 0.00 | 76 | 1022.6 |
| 20260830205010 | 27 | 139 | 0.0 | 0.0 | 0.00 | 0.00 | 0.00 | 76 | 1022.7 |
| 20260830204910 | 27 | 139 | 0.0 | 0.0 | 0.00 | 0.00 | 0.00 | 75 | 1022.6 |
| 20260830204809 | 27 | 142 | 0.0 | 0.0 | 0.00 | 0.00 | 0.00 | 76 | 1022.6 |
| 20260830204708 | 27 | 146 | 0.0 | 0.0 | 0.00 | 0.00 | 0.00 | 76 | 1022.6 |
| 20260830204608 | 27 | 146 | 0.0 | 0.0 | 0.00 | 0.00 | 0.00 | 75 | 1022.6 |
| 20260830204508 | 27 | 142 | 0.0 | 0.0 | 0.00 | 0.00 | 0.00 | 76 | 1022.7 |
| 20260830204402 | 27 | 142 | 0.0 | 0.0 | 0.00 | 0.00 | 0.00 | 77 | 1022.6 |
| 20260830204302 | 27 | 183 | 0.0 | 0.0 | 0.00 | 0.00 | 0.00 | 75 | 1022.6 |
| 20260830204201 | 27 | 205 | 0.0 | 0.0 | 0.00 | 0.00 | 0.00 | 74 | 1022.6 |
| 20260830204102 | 27 | 180 | 0.0 | 0.0 | 0.00 | 0.00 | 0.00 | 75 | 1022.7 |
| 20260830204003 | 27 | 179 | 0.0 | 0.0 | 0.00 | 0.00 | 0.00 | 75 | 1022.7 |
| 20260830203859 | 27 | 146 | 0.0 | 0.0 | 0.00 | 0.00 | 0.00 | 75 | 1022.6 |
| 20260830203800 | 27 | 110 | 0.0 | 0.0 | 0.00 | 0.00 | 0.00 | 75 | 1022.6 |
| 20260830203700 | 27 | 130 | 0.0 | 0.0 | 0.00 | 0.00 | 0.00 | 75 | 1022.6 |
| 20260830203558 | 27 | 130 | 0.0 | 0.0 | 0.00 | 0.00 | 0.00 | 73 | 1022.6 |
| 20260830203457 | 27 | 143 | 0.0 | 0.0 | 0.00 | 0.00 | 0.00 | 75 | 1022.6 |
| 20260830203354 | 27 | 167 | 0.0 | 0.0 | 0.00 | 0.00 | 0.00 | 76 | 1022.6 |
| 20260830203253 | 27 | 142 | 0.0 | 0.0 | 0.00 | 0.00 | 0.00 | 76 | 1022.5 |
| 20260830203155 | 27 | 153 | 0.0 | 0.0 | 0.00 | 0.00 | 0.00 | 75 | 1022.5 |
| 20260830203055 | 27 | 138 | 0.0 | 0.0 | 0.00 | 0.00 | 0.00 | 76 | 1022.6 |
| 20260830202952 | 27 | 110 | 0.0 | 0.0 | 0.00 | 0.00 | 0.00 | 75 | 1022.7 |
| 20260830202852 | 27 | 164 | 0.0 | 0.0 | 0.00 | 0.00 | 0.00 | 75 | 1022.6 |
| 20260830202750 | 27 | 169 | 0.0 | 0.0 | 0.00 | 0.00 | 0.00 | 76 | 1022.6 |
| 20260830202651 | 27 | 158 | 0.0 | 0.0 | 0.00 | 0.00 | 0.00 | 76 | 1022.7 |
| 20260830202549 | 27 | 148 | 0.0 | 0.0 | 0.00 | 0.00 | 0.00 | 74 | 1022.6 |
| 20260830202447 | 27 | 152 | 0.0 | 0.0 | 0.00 | 0.00 | 0.00 | 74 | 1022.6 |
| 20260830202347 | 27 | 163 | 0.0 | 0.0 | 0.00 | 0.00 | 0.00 | 77 | 1022.5 |
| 20260830202243 | 27 | 184 | 0.0 | 0.0 | 0.00 | 0.00 | 0.00 | 77 | 1022.6 |
| 20260830202145 | 27 | 157 | 0.0 | 0.0 | 0.00 | 0.00 | 0.00 | 76 | 1022.6 |
| 20260830202042 | 27 | 155 | 0.0 | 0.0 | 0.00 | 0.00 | 0.00 | 76 | 1022.6 |
| 20260830201941 | 27 | 151 | 0.0 | 0.0 | 0.00 | 0.00 | 0.00 | 76 | 1022.7 |
| 20260830201843 | 27 | 146 | 0.0 | 0.0 | 0.00 | 0.00 | 0.00 | 75 | 1022.7 |
| 20260830201742 | 27 | 163 | 0.0 | 0.0 | 0.00 | 0.00 | 0.00 | 74 | 1022.7 |
| 20260830201640 | 27 | 121 | 0.0 | 0.0 | 0.00 | 0.00 | 0.00 | 77 | 1022.7 |
| 20260830201540 | 27 | 170 | 0.0 | 0.0 | 0.00 | 0.00 | 0.00 | 76 | 1022.7 |
| 20260830201439 | 27 | 204 | 0.0 | 0.0 | 0.00 | 0.00 | 0.00 | 76 | 1022.8 |
| 20260830201339 | 27 | 151 | 0.0 | 0.0 | 0.00 | 0.00 | 0.00 | 76 | 1022.9 |
| 20260830201241 | 27 | 174 | 0.0 | 0.0 | 0.00 | 0.00 | 0.00 | 75 | 1022.8 |
| 20260830201131 | 27 | 155 | 0.0 | 0.0 | 0.00 | 0.00 | 0.00 | 75 | 1022.8 |
| 20260830201029 | 27 | 159 | 0.0 | 0.0 | 0.00 | 0.00 | 0.00 | 77 | 1022.8 |
| 20260830200928 | 27 | 165 | 0.0 | 0.0 | 0.00 | 0.00 | 0.00 | 78 | 1022.8 |
| 20260830200829 | 27 | 113 | 0.0 | 0.0 | 0.00 | 0.00 | 0.00 | 77 | 1022.7 |
| 20260830200726 | 27 | 113 | 0.0 | 0.0 | 0.00 | 0.00 | 0.00 | 77 | 1022.7 |
| 20260830200619 | 27 | 109 | 0.0 | 0.0 | 0.00 | 0.00 | 0.00 | 77 | 1022.7 |
| 20260830200519 | 27 | 171 | 0.0 | 0.0 | 0.00 | 0.00 | 0.00 | 76 | 1022.7 |
| 20260830200421 | 27 | 115 | 0.0 | 0.0 | 0.00 | 0.00 | 0.00 | 76 | 1022.8 |
| 20260830200319 | 26 | 121 | 0.0 | 0.0 | 0.00 | 0.00 | 0.00 | 75 | 1022.8 |
| 20260830200221 | 26 | 141 | 0.0 | 0.0 | 0.00 | 0.00 | 0.00 | 77 | 1022.8 |
| 20260830200120 | 26 | 174 | 0.0 | 0.0 | 0.00 | 0.00 | 0.00 | 78 | 1022.7 |
| 20260830200020 | 26 | 188 | 0.0 | 0.0 | 0.00 | 0.00 | 0.00 | 78 | 1022.7 |
| 20260830195920 | 26 | 187 | 0.0 | 0.0 | 0.00 | 0.00 | 0.00 | 79 | 1022.9 |
| 20260830195818 | 26 | 142 | 0.0 | 0.0 | 0.00 | 0.00 | 0.00 | 78 | 1022.8 |
| 20260830195717 | 26 | 138 | 0.0 | 0.0 | 0.00 | 0.00 | 0.00 | 78 | 1022.8 |
| 20260830195617 | 26 | 110 | 0.0 | 0.0 | 0.00 | 0.00 | 0.00 | 78 | 1022.8 |
| 20260830195515 | 26 | 119 | 0.0 | 0.0 | 0.00 | 0.00 | 0.00 | 77 | 1022.9 |
| 20260830195411 | 26 | 116 | 0.0 | 0.0 | 0.00 | 0.00 | 0.00 | 79 | 1023.0 |
| 20260830195312 | 26 | 134 | 0.0 | 0.0 | 0.00 | 0.00 | 0.00 | 78 | 1023.0 |
| 20260830195209 | 26 | 109 | 0.0 | 0.0 | 0.00 | 0.00 | 0.00 | 78 | 1023.0 |
| 20260830195109 | 26 | 107 | 0.0 | 0.0 | 0.00 | 0.00 | 0.00 | 78 | 1022.9 |
| 20260830195009 | 26 | 157 | 0.0 | 0.0 | 0.00 | 0.00 | 0.00 | 78 | 1023.0 |
| 20260830194908 | 26 | 128 | 0.0 | 0.0 | 0.00 | 0.00 | 0.00 | 78 | 1023.0 |
| 20260830194807 | 26 | 130 | 0.0 | 0.0 | 0.00 | 0.00 | 0.00 | 77 | 1023.0 |
| 20260830194707 | 26 | 124 | 0.0 | 0.0 | 0.00 | 0.00 | 0.00 | 77 | 1023.1 |
| 20260830194608 | 26 | 119 | 0.0 | 0.0 | 0.00 | 0.00 | 0.00 | 77 | 1023.1 |
| 20260830194507 | 26 | 117 | 0.0 | 0.0 | 0.00 | 0.00 | 0.00 | 77 | 1023.1 |
| 20260830194407 | 26 | 111 | 0.0 | 0.0 | 0.00 | 0.00 | 0.00 | 77 | 1023.1 |
| 20260830194308 | 27 | 113 | 0.0 | 0.0 | 0.00 | 0.00 | 0.00 | 77 | 1023.0 |
| 20260830194207 | 27 | 116 | 0.0 | 0.0 | 0.00 | 0.00 | 0.00 | 76 | 1023.1 |
| 20260830194109 | 27 | 112 | 0.0 | 0.0 | 0.00 | 0.00 | 0.00 | 77 | 1023.1 |
| 20260830194007 | 27 | 147 | 0.0 | 0.0 | 0.00 | 0.00 | 0.00 | 76 | 1023.1 |
| 20260830193908 | 27 | 115 | 0.0 | 0.0 | 0.00 | 0.00 | 0.00 | 77 | 1023.1 |
| 20260830193808 | 27 | 146 | 0.0 | 0.0 | 0.00 | 0.00 | 0.00 | 77 | 1023.1 |
| 20260830193708 | 27 | 198 | 0.0 | 0.0 | 0.00 | 0.00 | 0.00 | 76 | 1023.1 |
| 20260830193609 | 27 | 160 | 0.0 | 0.0 | 0.00 | 0.00 | 0.00 | 77 | 1023.2 |
| 20260830193508 | 27 | 128 | 0.0 | 0.0 | 0.00 | 0.00 | 0.00 | 78 | 1023.1 |
| 20260830193407 | 27 | 108 | 0.0 | 0.0 | 0.00 | 0.00 | 0.00 | 77 | 1023.2 |
| 20260830193308 | 27 | 161 | 0.0 | 0.0 | 0.00 | 0.00 | 0.00 | 78 | 1023.2 |
| 20260830193208 | 27 | 183 | 0.0 | 0.0 | 0.00 | 0.00 | 0.00 | 77 | 1023.2 |
| 20260830193108 | 27 | 136 | 0.0 | 0.0 | 0.00 | 0.00 | 0.00 | 77 | 1023.2 |
| 20260830193004 | 27 | 159 | 0.0 | 0.0 | 0.00 | 0.00 | 0.00 | 78 | 1023.2 |
| 20260830192904 | 27 | 138 | 0.0 | 0.0 | 0.00 | 0.00 | 0.00 | 78 | 1023.2 |
| 20260830192804 | 27 | 109 | 0.0 | 0.0 | 0.00 | 0.00 | 0.00 | 78 | 1023.2 |
| 20260830192704 | 27 | 129 | 0.0 | 0.0 | 0.00 | 0.00 | 0.00 | 78 | 1023.2 |
| 20260830192604 | 27 | 98 | 0.0 | 0.0 | 0.00 | 0.00 | 0.00 | 78 | 1023.2 |
| 20260830192503 | 27 | 115 | 0.0 | 0.0 | 0.00 | 0.00 | 0.00 | 79 | 1023.2 |
| 20260830192404 | 27 | 117 | 0.0 | 0.0 | 0.00 | 0.00 | 0.00 | 80 | 1023.3 |
| 20260830192305 | 27 | 123 | 0.0 | 0.0 | 0.00 | 0.00 | 0.00 | 77 | 1023.2 |
| 20260830192203 | 27 | 108 | 0.0 | 0.0 | 0.00 | 0.00 | 0.00 | 79 | 1023.3 |
| 20260830192104 | 27 | 133 | 0.0 | 0.0 | 0.00 | 0.00 | 0.00 | 79 | 1023.2 |
| 20260830192004 | 27 | 98 | 0.0 | 0.0 | 0.00 | 0.00 | 0.00 | 78 | 1023.3 |
| 20260830191904 | 27 | 111 | 0.0 | 0.0 | 0.00 | 0.00 | 0.00 | 77 | 1023.3 |
| 20260830191803 | 27 | 123 | 0.0 | 0.0 | 0.00 | 0.00 | 0.00 | 76 | 1023.2 |
| 20260830191704 | 27 | 182 | 0.0 | 0.0 | 0.00 | 0.00 | 0.00 | 76 | 1023.3 |
| 20260830191603 | 27 | 150 | 0.0 | 0.0 | 0.00 | 0.00 | 0.00 | 76 | 1023.3 |
| 20260830191504 | 27 | 213 | 0.0 | 0.0 | 0.00 | 0.00 | 0.00 | 77 | 1023.5 |
| 20260830191405 | 27 | 76 | 0.0 | 0.0 | 0.00 | 0.00 | 0.00 | 77 | 1023.5 |
| 20260830191304 | 27 | 74 | 0.0 | 0.0 | 0.00 | 0.00 | 0.00 | 77 | 1023.3 |
| 20260830191203 | 27 | 71 | 0.0 | 0.0 | 0.00 | 0.00 | 0.00 | 77 | 1023.3 |
| 20260830191105 | 27 | 71 | 0.0 | 0.0 | 0.00 | 0.00 | 0.00 | 77 | 1023.3 |
| 20260830191004 | 27 | 68 | 0.0 | 0.0 | 0.00 | 0.00 | 0.00 | 75 | 1023.3 |
| 20260830190904 | 27 | 68 | 0.0 | 0.0 | 0.00 | 0.00 | 0.00 | 77 | 1023.2 |
| 20260830190804 | 27 | 99 | 0.0 | 0.0 | 0.00 | 0.00 | 0.00 | 79 | 1023.5 |
| 20260830190705 | 27 | 99 | 0.0 | 0.0 | 0.00 | 0.00 | 0.00 | 77 | 1023.3 |
| 20260830190604 | 27 | 99 | 0.0 | 0.0 | 0.00 | 0.00 | 0.00 | 76 | 1023.3 |
| 20260830190504 | 27 | 99 | 0.0 | 0.0 | 0.00 | 0.00 | 0.00 | 75 | 1023.5 |
| 20260830190404 | 27 | 99 | 0.0 | 0.0 | 0.00 | 0.00 | 0.00 | 75 | 1023.3 |
| 20260830190305 | 27 | 100 | 0.0 | 0.0 | 0.00 | 0.00 | 0.00 | 75 | 1023.5 |
| 20260830190204 | 27 | 111 | 0.0 | 0.0 | 0.00 | 0.00 | 0.00 | 75 | 1023.6 |
| 20260830190104 | 27 | 112 | 0.0 | 0.0 | 0.00 | 0.00 | 0.00 | 76 | 1023.6 |
| 20260830190005 | 27 | 111 | 0.0 | 0.0 | 0.00 | 0.00 | 0.00 | 76 | 1023.5 |
| 20260830185903 | 27 | 158 | 0.0 | 0.0 | 0.00 | 0.00 | 0.00 | 75 | 1023.6 |
| 20260830185805 | 27 | 158 | 0.0 | 0.0 | 0.00 | 0.00 | 0.00 | 75 | 1023.6 |
| 20260830185659 | 27 | 158 | 0.0 | 0.0 | 0.00 | 0.00 | 0.00 | 77 | 1023.6 |
| 20260830185601 | 27 | 87 | 0.0 | 0.0 | 0.00 | 0.00 | 0.00 | 75 | 1023.7 |
| 20260830185459 | 27 | 87 | 0.0 | 0.0 | 0.00 | 0.00 | 0.00 | 76 | 1023.6 |
| 20260830185400 | 27 | 259 | 0.0 | 0.0 | 0.00 | 0.00 | 0.00 | 77 | 1023.7 |
| 20260830185300 | 27 | 259 | 0.0 | 0.0 | 0.00 | 0.00 | 0.00 | 76 | 1023.7 |
| 20260830185201 | 27 | 259 | 0.0 | 0.0 | 0.00 | 0.00 | 0.00 | 77 | 1023.7 |
| 20260830185059 | 27 | 180 | 0.0 | 0.0 | 0.00 | 0.00 | 0.00 | 78 | 1023.6 |
| 20260830185001 | 27 | 161 | 0.0 | 0.0 | 0.00 | 0.00 | 0.00 | 76 | 1023.7 |
| 20260830184859 | 27 | 161 | 0.0 | 0.0 | 0.00 | 0.00 | 0.00 | 76 | 1023.7 |
| 20260830184759 | 27 | 161 | 0.0 | 0.0 | 0.00 | 0.00 | 0.00 | 75 | 1023.7 |
| 20260830184701 | 27 | 161 | 0.0 | 0.0 | 0.00 | 0.00 | 0.00 | 77 | 1023.7 |
| 20260830184558 | 27 | 161 | 0.0 | 0.0 | 0.00 | 0.00 | 0.00 | 76 | 1023.7 |
| 20260830184501 | 27 | 162 | 0.0 | 0.0 | 0.00 | 0.00 | 0.00 | 78 | 1023.7 |
| 20260830184401 | 27 | 162 | 0.0 | 0.0 | 0.00 | 0.00 | 0.00 | 77 | 1023.7 |
| 20260830184300 | 27 | 161 | 0.0 | 0.0 | 0.00 | 0.00 | 0.00 | 76 | 1023.8 |
| 20260830184159 | 27 | 152 | 0.0 | 0.0 | 0.00 | 0.00 | 0.00 | 77 | 1023.8 |
| 20260830184101 | 27 | 185 | 0.0 | 0.0 | 0.00 | 0.00 | 0.00 | 78 | 1023.9 |
| 20260830184000 | 27 | 185 | 0.0 | 0.0 | 0.00 | 0.00 | 0.00 | 78 | 1023.9 |
| 20260830183859 | 26 | 186 | 0.0 | 0.0 | 0.00 | 0.00 | 0.00 | 78 | 1023.9 |
| 20260830183800 | 26 | 188 | 0.0 | 3.2 | 0.00 | 0.00 | 0.00 | 79 | 1024.0 |
| 20260830183701 | 26 | 155 | 1.6 | 6.4 | 0.00 | 0.00 | 0.00 | 80 | 1024.0 |
| 20260830183559 | 26 | 112 | 1.6 | 6.4 | 0.00 | 0.00 | 0.00 | 79 | 1023.9 |
| 20260830183500 | 26 | 94 | 1.6 | 6.4 | 0.00 | 0.00 | 0.00 | 81 | 1024.1 |
| 20260830183359 | 26 | 87 | 1.6 | 6.4 | 0.00 | 0.00 | 0.00 | 79 | 1024.0 |
| 20260830183300 | 26 | 99 | 3.2 | 6.4 | 0.00 | 0.00 | 0.00 | 80 | 1024.0 |
| 20260830183201 | 26 | 101 | 3.2 | 6.4 | 0.00 | 0.00 | 0.00 | 80 | 1024.1 |
| 20260830183100 | 26 | 57 | 3.2 | 6.4 | 0.00 | 0.00 | 0.00 | 80 | 1024.1 |
| 20260830182959 | 26 | 51 | 3.2 | 6.4 | 0.00 | 0.00 | 0.00 | 80 | 1024.1 |
| 20260830182900 | 26 | 51 | 3.2 | 6.4 | 0.00 | 0.00 | 0.00 | 78 | 1024.1 |
| 20260830182800 | 26 | 51 | 3.2 | 6.4 | 0.00 | 0.00 | 0.00 | 79 | 1024.2 |
| 20260830182659 | 26 | 51 | 3.2 | 6.4 | 0.00 | 0.00 | 0.00 | 79 | 1024.1 |
| 20260830182559 | 26 | 50 | 3.2 | 6.4 | 0.00 | 0.00 | 0.00 | 79 | 1024.1 |
| 20260830182500 | 26 | 46 | 1.6 | 6.4 | 0.00 | 0.00 | 0.00 | 81 | 1024.2 |
| 20260830182355 | 26 | 31 | 1.6 | 6.4 | 0.00 | 0.00 | 0.00 | 81 | 1024.2 |
| 20260830182255 | 26 | 22 | 1.6 | 6.4 | 0.00 | 0.00 | 0.00 | 81 | 1024.2 |
| 20260830182156 | 26 | 5 | 1.6 | 6.4 | 0.00 | 0.00 | 0.00 | 81 | 1024.2 |
| 20260830182055 | 26 | 5 | 0.0 | 6.4 | 0.00 | 0.00 | 0.00 | 81 | 1024.2 |
| 20260830181957 | 26 | 328 | 0.0 | 6.4 | 0.00 | 0.00 | 0.00 | 80 | 1024.2 |
| 20260830181856 | 26 | 327 | 0.0 | 6.4 | 0.00 | 0.00 | 0.00 | 80 | 1024.2 |
| 20260830181755 | 26 | 348 | 0.0 | 0.0 | 0.00 | 0.00 | 0.00 | 80 | 1024.3 |
| 20260830181656 | 26 | 335 | 0.0 | 0.0 | 0.00 | 0.00 | 0.00 | 81 | 1024.2 |
| 20260830181556 | 26 | 350 | 0.0 | 0.0 | 0.00 | 0.00 | 0.00 | 80 | 1024.3 |
| 20260830181456 | 26 | 348 | 0.0 | 0.0 | 0.00 | 0.00 | 0.00 | 81 | 1024.3 |
| 20260830181357 | 26 | 355 | 0.0 | 0.0 | 0.00 | 0.00 | 0.00 | 82 | 1024.3 |
| 20260830181256 | 26 | 298 | 0.0 | 0.0 | 0.00 | 0.00 | 0.00 | 80 | 1024.3 |
| 20260830181157 | 26 | 299 | 0.0 | 0.0 | 0.00 | 0.00 | 0.00 | 80 | 1024.4 |
| 20260830181055 | 26 | 298 | 0.0 | 0.0 | 0.00 | 0.00 | 0.00 | 80 | 1024.4 |
| 20260830180957 | 26 | 301 | 0.0 | 0.0 | 0.00 | 0.00 | 0.00 | 80 | 1024.4 |
| 20260830180856 | 26 | 300 | 0.0 | 0.0 | 0.00 | 0.00 | 0.00 | 80 | 1024.4 |
| 20260830180757 | 26 | 335 | 0.0 | 0.0 | 0.00 | 0.00 | 0.00 | 80 | 1024.3 |
| 20260830180657 | 26 | 335 | 0.0 | 0.0 | 0.00 | 0.00 | 0.00 | 80 | 1024.4 |
| 20260830180556 | 26 | 334 | 0.0 | 0.0 | 0.00 | 0.00 | 0.00 | 78 | 1024.4 |
| 20260830180455 | 26 | 355 | 0.0 | 0.0 | 0.00 | 0.00 | 0.00 | 79 | 1024.4 |
| 20260830180355 | 26 | 355 | 0.0 | 0.0 | 0.00 | 0.00 | 0.00 | 81 | 1024.4 |
| 20260830180255 | 26 | 325 | 0.0 | 0.0 | 0.00 | 0.00 | 0.00 | 80 | 1024.4 |
| 20260830180157 | 26 | 321 | 0.0 | 0.0 | 0.00 | 0.00 | 0.00 | 81 | 1024.5 |
| 20260830180056 | 26 | 320 | 0.0 | 0.0 | 0.00 | 0.00 | 0.00 | 80 | 1024.5 |
| 20260830175956 | 26 | 320 | 0.0 | 0.0 | 0.00 | 0.00 | 0.00 | 79 | 1024.4 |
| 20260830175857 | 26 | 320 | 0.0 | 4.8 | 0.00 | 0.00 | 0.00 | 79 | 1024.4 |
| 20260830175755 | 26 | 24 | 0.0 | 4.8 | 0.00 | 0.00 | 0.00 | 79 | 1024.5 |
| 20260830175655 | 26 | 24 | 0.0 | 4.8 | 0.00 | 0.00 | 0.00 | 78 | 1024.5 |
| 20260830175556 | 26 | 24 | 0.0 | 4.8 | 0.00 | 0.00 | 0.00 | 78 | 1024.5 |
| 20260830175457 | 26 | 26 | 0.0 | 4.8 | 0.00 | 0.00 | 0.00 | 79 | 1024.4 |
| 20260830175355 | 26 | 26 | 0.0 | 4.8 | 0.00 | 0.00 | 0.00 | 79 | 1024.5 |
| 20260830175257 | 26 | 25 | 0.0 | 4.8 | 0.00 | 0.00 | 0.00 | 79 | 1024.6 |
| 20260830175157 | 26 | 25 | 0.0 | 4.8 | 0.00 | 0.00 | 0.00 | 80 | 1024.6 |
| 20260830175051 | 26 | 306 | 0.0 | 4.8 | 0.00 | 0.00 | 0.00 | 79 | 1024.6 |
| 20260830174953 | 26 | 306 | 0.0 | 4.8 | 0.00 | 0.00 | 0.00 | 79 | 1024.5 |
| 20260830174851 | 26 | 307 | 0.0 | 4.8 | 0.00 | 0.00 | 0.00 | 79 | 1024.6 |
| 20260830174752 | 26 | 308 | 0.0 | 0.0 | 0.00 | 0.00 | 0.00 | 79 | 1024.6 |
| 20260830174652 | 26 | 307 | 0.0 | 0.0 | 0.00 | 0.00 | 0.00 | 79 | 1024.6 |
| 20260830174551 | 26 | 309 | 0.0 | 0.0 | 0.00 | 0.00 | 0.00 | 80 | 1024.6 |
| 20260830174452 | 26 | 294 | 0.0 | 0.0 | 0.00 | 0.00 | 0.00 | 78 | 1024.7 |
| 20260830174352 | 26 | 294 | 0.0 | 0.0 | 0.00 | 0.00 | 0.00 | 79 | 1024.7 |
| 20260830174251 | 26 | 290 | 0.0 | 0.0 | 0.00 | 0.00 | 0.00 | 79 | 1024.7 |
| 20260830174152 | 26 | 290 | 0.0 | 0.0 | 0.00 | 0.00 | 0.00 | 78 | 1024.7 |
| 20260830174051 | 26 | 290 | 0.0 | 0.0 | 0.00 | 0.00 | 0.00 | 78 | 1024.7 |
| 20260830173953 | 26 | 290 | 0.0 | 0.0 | 0.00 | 0.00 | 0.00 | 78 | 1024.8 |
| 20260830173851 | 26 | 290 | 0.0 | 0.0 | 0.00 | 0.00 | 0.00 | 77 | 1024.8 |
| 20260830173751 | 26 | 290 | 0.0 | 0.0 | 0.00 | 0.00 | 0.00 | 78 | 1024.7 |
| 20260830173653 | 26 | 290 | 0.0 | 0.0 | 0.00 | 0.00 | 0.00 | 79 | 1024.8 |
| 20260830173551 | 26 | 289 | 0.0 | 0.0 | 0.00 | 0.00 | 0.00 | 80 | 1024.8 |
| 20260830173449 | 26 | 288 | 0.0 | 0.0 | 0.00 | 0.00 | 0.00 | 79 | 1024.8 |
| 20260830173349 | 26 | 288 | 0.0 | 0.0 | 0.00 | 0.00 | 0.00 | 79 | 1024.8 |
| 20260830173250 | 26 | 292 | 0.0 | 0.0 | 0.00 | 0.00 | 0.00 | 79 | 1024.9 |
| 20260830173147 | 26 | 290 | 0.0 | 0.0 | 0.00 | 0.00 | 0.00 | 80 | 1024.9 |
| 20260830173044 | 26 | 346 | 0.0 | 0.0 | 0.00 | 0.00 | 0.00 | 82 | 1024.9 |
| 20260830172944 | 25 | 5 | 0.0 | 0.0 | 0.00 | 0.00 | 0.00 | 80 | 1024.8 |
| 20260830172845 | 25 | 355 | 0.0 | 0.0 | 0.00 | 0.00 | 0.00 | 81 | 1024.9 |
| 20260830172744 | 25 | 0 | 0.0 | 0.0 | 0.00 | 0.00 | 0.00 | 81 | 1024.9 |
| 20260830172638 | 25 | 34 | 0.0 | 0.0 | 0.00 | 0.00 | 0.00 | 82 | 1025.1 |
| 20260830172537 | 25 | 48 | 0.0 | 0.0 | 0.00 | 0.00 | 0.00 | 83 | 1025.1 |
| 20260830172437 | 25 | 48 | 0.0 | 0.0 | 0.00 | 0.00 | 0.00 | 83 | 1025.1 |
| 20260830172336 | 25 | 49 | 0.0 | 0.0 | 0.00 | 0.00 | 0.00 | 83 | 1025.1 |
| 20260830172234 | 25 | 49 | 0.0 | 0.0 | 0.00 | 0.00 | 0.00 | 81 | 1025.1 |
| 20260830172135 | 25 | 49 | 0.0 | 0.0 | 0.00 | 0.00 | 0.00 | 83 | 1025.1 |
| 20260830172031 | 25 | 49 | 0.0 | 0.0 | 0.00 | 0.00 | 0.00 | 85 | 1025.2 |
| 20260830171930 | 25 | 49 | 0.0 | 0.0 | 0.00 | 0.00 | 0.00 | 84 | 1024.9 |
| 20260830171830 | 25 | 49 | 0.0 | 0.0 | 0.00 | 0.00 | 0.00 | 83 | 1025.1 |
| 20260830171727 | 25 | 49 | 0.0 | 0.0 | 0.00 | 0.00 | 0.00 | 83 | 1025.1 |
| 20260830171625 | 25 | 49 | 0.0 | 0.0 | 0.00 | 0.00 | 0.00 | 83 | 1025.1 |
| 20260830171522 | 24 | 48 | 0.0 | 0.0 | 0.00 | 0.00 | 0.00 | 84 | 1025.1 |
| 20260830171422 | 24 | 42 | 0.0 | 0.0 | 0.00 | 0.00 | 0.00 | 84 | 1025.1 |
| 20260830171323 | 24 | 24 | 0.0 | 0.0 | 0.00 | 0.00 | 0.00 | 85 | 1025.1 |
| 20260830171222 | 24 | 296 | 0.0 | 0.0 | 0.00 | 0.00 | 0.00 | 85 | 1025.2 |
| 20260830171117 | 24 | 295 | 0.0 | 0.0 | 0.00 | 0.00 | 0.00 | 85 | 1025.2 |
| 20260830171015 | 24 | 295 | 0.0 | 0.0 | 0.00 | 0.00 | 0.00 | 85 | 1025.1 |
| 20260830170916 | 24 | 296 | 0.0 | 0.0 | 0.00 | 0.00 | 0.00 | 83 | 1025.2 |
| 20260830170813 | 24 | 296 | 0.0 | 0.0 | 0.00 | 0.00 | 0.00 | 83 | 1025.3 |
| 20260830170711 | 24 | 296 | 0.0 | 0.0 | 0.00 | 0.00 | 0.00 | 84 | 1025.3 |
| 20260830170610 | 24 | 309 | 0.0 | 0.0 | 0.00 | 0.00 | 0.00 | 85 | 1025.3 |
| 20260830170511 | 24 | 310 | 0.0 | 0.0 | 0.00 | 0.00 | 0.00 | 85 | 1025.3 |
| 20260830170407 | 24 | 310 | 0.0 | 0.0 | 0.00 | 0.00 | 0.00 | 85 | 1025.3 |
| 20260830170309 | 24 | 333 | 0.0 | 0.0 | 0.00 | 0.00 | 0.00 | 84 | 1025.3 |
| 20260830170206 | 24 | 332 | 0.0 | 0.0 | 0.00 | 0.00 | 0.00 | 85 | 1025.3 |
| 20260830170101 | 24 | 332 | 0.0 | 0.0 | 0.00 | 0.00 | 0.00 | 84 | 1025.3 |
| 20260830170000 | 23 | 355 | 0.0 | 0.0 | 0.00 | 0.00 | 0.00 | 85 | 1025.4 |
| 20260830165901 | 24 | 355 | 0.0 | 0.0 | 0.00 | 0.00 | 0.00 | 85 | 1025.4 |
| 20260830165759 | 23 | 355 | 0.0 | 0.0 | 0.00 | 0.00 | 0.00 | 84 | 1025.4 |
| 20260830165700 | 23 | 355 | 0.0 | 0.0 | 0.00 | 0.00 | 0.00 | 84 | 1025.4 |
| 20260830165552 | 23 | 355 | 0.0 | 0.0 | 0.00 | 0.00 | 0.00 | 85 | 1025.4 |
| 20260830165452 | 23 | 355 | 0.0 | 0.0 | 0.00 | 0.00 | 0.00 | 85 | 1025.4 |
| 20260830165351 | 23 | 350 | 0.0 | 0.0 | 0.00 | 0.00 | 0.00 | 85 | 1025.5 |
| 20260830165251 | 23 | 308 | 0.0 | 0.0 | 0.00 | 0.00 | 0.00 | 85 | 1025.5 |
| 20260830165149 | 23 | 307 | 0.0 | 0.0 | 0.00 | 0.00 | 0.00 | 84 | 1025.5 |
| 20260830165047 | 23 | 307 | 0.0 | 0.0 | 0.00 | 0.00 | 0.00 | 84 | 1025.5 |
| 20260830164945 | 23 | 307 | 0.0 | 0.0 | 0.00 | 0.00 | 0.00 | 84 | 1025.5 |
| 20260830164846 | 23 | 307 | 0.0 | 0.0 | 0.00 | 0.00 | 0.00 | 84 | 1025.6 |
| 20260830164747 | 23 | 307 | 0.0 | 0.0 | 0.00 | 0.00 | 0.00 | 84 | 1025.6 |
| 20260830164644 | 23 | 300 | 0.0 | 0.0 | 0.00 | 0.00 | 0.00 | 84 | 1025.6 |
| 20260830164540 | 23 | 336 | 0.0 | 0.0 | 0.00 | 0.00 | 0.00 | 85 | 1025.6 |
| 20260830164437 | 24 | 346 | 0.0 | 0.0 | 0.00 | 0.00 | 0.00 | 85 | 1025.6 |
| 20260830164337 | 24 | 329 | 0.0 | 0.0 | 0.00 | 0.00 | 0.00 | 85 | 1025.5 |
| 20260830164237 | 24 | 338 | 0.0 | 0.0 | 0.00 | 0.00 | 0.00 | 85 | 1025.5 |
| 20260830164137 | 23 | 338 | 0.0 | 0.0 | 0.00 | 0.00 | 0.00 | 85 | 1025.6 |
| 20260830164033 | 23 | 69 | 0.0 | 0.0 | 0.00 | 0.00 | 0.00 | 85 | 1025.5 |
| 20260830163931 | 23 | 70 | 0.0 | 0.0 | 0.00 | 0.00 | 0.00 | 85 | 1025.6 |
| 20260830163832 | 23 | 69 | 0.0 | 0.0 | 0.00 | 0.00 | 0.00 | 85 | 1025.6 |
| 20260830163729 | 23 | 67 | 0.0 | 0.0 | 0.00 | 0.00 | 0.00 | 86 | 1025.5 |
| 20260830163628 | 23 | 41 | 0.0 | 0.0 | 0.00 | 0.00 | 0.00 | 87 | 1025.5 |
| 20260830163523 | 23 | 32 | 0.0 | 0.0 | 0.00 | 0.00 | 0.00 | 87 | 1025.6 |
| 20260830163425 | 23 | 30 | 0.0 | 0.0 | 0.00 | 0.00 | 0.00 | 87 | 1025.5 |
| 20260830163323 | 23 | 30 | 0.0 | 0.0 | 0.00 | 0.00 | 0.00 | 87 | 1025.6 |
| 20260830163224 | 23 | 28 | 0.0 | 0.0 | 0.00 | 0.00 | 0.00 | 86 | 1025.6 |
| 20260830163122 | 23 | 45 | 0.0 | 0.0 | 0.00 | 0.00 | 0.00 | 86 | 1025.6 |
| 20260830163022 | 23 | 43 | 0.0 | 0.0 | 0.00 | 0.00 | 0.00 | 85 | 1025.6 |
| 20260830162919 | 23 | 43 | 0.0 | 0.0 | 0.00 | 0.00 | 0.00 | 86 | 1025.6 |
| 20260830162819 | 23 | 44 | 0.0 | 0.0 | 0.00 | 0.00 | 0.00 | 86 | 1025.5 |
| 20260830162718 | 23 | 41 | 0.0 | 0.0 | 0.00 | 0.00 | 0.00 | 86 | 1025.5 |
| 20260830162616 | 23 | 33 | 0.0 | 0.0 | 0.00 | 0.00 | 0.00 | 86 | 1025.5 |
| 20260830162507 | 23 | 33 | 0.0 | 0.0 | 0.00 | 0.00 | 0.00 | 86 | 1025.5 |
| 20260830162409 | 23 | 0 | 0.0 | 0.0 | 0.00 | 0.00 | 0.00 | 86 | 1025.6 |
| 20260830162307 | 23 | 347 | 0.0 | 0.0 | 0.00 | 0.00 | 0.00 | 86 | 1025.6 |
| 20260830162207 | 23 | 344 | 0.0 | 0.0 | 0.00 | 0.00 | 0.00 | 86 | 1025.6 |
| 20260830162106 | 23 | 344 | 0.0 | 0.0 | 0.00 | 0.00 | 0.00 | 86 | 1025.6 |
| 20260830162005 | 23 | 344 | 0.0 | 0.0 | 0.00 | 0.00 | 0.00 | 87 | 1025.6 |
| 20260830161905 | 23 | 344 | 0.0 | 0.0 | 0.00 | 0.00 | 0.00 | 87 | 1025.6 |
| 20260830161806 | 23 | 343 | 0.0 | 0.0 | 0.00 | 0.00 | 0.00 | 87 | 1025.5 |
| 20260830161705 | 23 | 327 | 0.0 | 0.0 | 0.00 | 0.00 | 0.00 | 87 | 1025.5 |
| 20260830161606 | 23 | 5 | 0.0 | 0.0 | 0.00 | 0.00 | 0.00 | 86 | 1025.6 |
| 20260830161505 | 23 | 5 | 0.0 | 0.0 | 0.00 | 0.00 | 0.00 | 87 | 1025.5 |
| 20260830161405 | 23 | 23 | 0.0 | 0.0 | 0.00 | 0.00 | 0.00 | 87 | 1025.5 |
| 20260830161306 | 23 | 327 | 0.0 | 0.0 | 0.00 | 0.00 | 0.00 | 87 | 1025.6 |
| 20260830161205 | 23 | 311 | 0.0 | 8.0 | 0.00 | 0.00 | 0.00 | 87 | 1025.5 |
| 20260830161105 | 23 | 331 | 0.0 | 9.7 | 0.00 | 0.00 | 0.00 | 87 | 1025.5 |
| 20260830161006 | 23 | 319 | 0.0 | 9.7 | 0.00 | 0.00 | 0.00 | 87 | 1025.5 |
| 20260830160905 | 23 | 298 | 0.0 | 9.7 | 0.00 | 0.00 | 0.00 | 87 | 1025.6 |
| 20260830160805 | 23 | 324 | 0.0 | 9.7 | 0.00 | 0.00 | 0.00 | 87 | 1025.5 |
| 20260830160705 | 23 | 348 | 0.0 | 9.7 | 0.00 | 0.00 | 0.00 | 87 | 1025.5 |
| 20260830160605 | 23 | 11 | 0.0 | 9.7 | 0.00 | 0.00 | 0.00 | 87 | 1025.6 |
| 20260830160507 | 23 | 11 | 0.0 | 9.7 | 0.00 | 0.00 | 0.00 | 87 | 1025.6 |
| 20260830160406 | 23 | 5 | 0.0 | 9.7 | 0.00 | 0.00 | 0.00 | 87 | 1025.6 |
| 20260830160307 | 23 | 335 | 0.0 | 9.7 | 0.00 | 0.00 | 0.00 | 87 | 1025.6 |
| 20260830160206 | 23 | 336 | 0.0 | 9.7 | 0.00 | 0.00 | 0.00 | 87 | 1025.6 |
| 20260830160106 | 23 | 5 | 0.0 | 0.0 | 0.00 | 0.00 | 0.00 | 87 | 1025.6 |
| 20260830160005 | 23 | 0 | 0.0 | 0.0 | 0.00 | 0.00 | 0.00 | 87 | 1025.6 |
| 20260830155906 | 23 | 323 | 0.0 | 0.0 | 0.00 | 0.00 | 0.00 | 88 | 1025.6 |
| 20260830155806 | 23 | 322 | 0.0 | 0.0 | 0.00 | 0.00 | 0.00 | 88 | 1025.6 |
| 20260830155702 | 23 | 321 | 0.0 | 0.0 | 0.00 | 0.00 | 0.00 | 87 | 1025.6 |
| 20260830155601 | 23 | 38 | 0.0 | 0.0 | 0.00 | 0.00 | 0.00 | 88 | 1025.7 |
| 20260830155502 | 23 | 38 | 0.0 | 0.0 | 0.00 | 0.00 | 0.00 | 88 | 1025.7 |
| 20260830155401 | 23 | 40 | 0.0 | 0.0 | 0.00 | 0.00 | 0.00 | 88 | 1025.7 |
| 20260830155306 | 23 | 355 | 0.0 | 0.0 | 0.00 | 0.00 | 0.00 | 89 | 1025.6 |
| 20260830155201 | 23 | 9 | 0.0 | 0.0 | 0.00 | 0.00 | 0.00 | 89 | 1025.7 |
| 20260830155056 | 23 | 348 | 0.0 | 0.0 | 0.00 | 0.00 | 0.00 | 89 | 1025.5 |
| 20260830154955 | 23 | 325 | 0.0 | 3.2 | 0.00 | 0.00 | 0.00 | 89 | 1025.6 |
| 20260830154856 | 23 | 323 | 0.0 | 4.8 | 0.00 | 0.00 | 0.00 | 89 | 1025.6 |
| 20260830154755 | 23 | 346 | 0.0 | 4.8 | 0.00 | 0.00 | 0.00 | 90 | 1025.6 |
| 20260830154653 | 23 | 55 | 0.0 | 4.8 | 0.00 | 0.00 | 0.00 | 90 | 1025.5 |
| 20260830154549 | 22 | 67 | 0.0 | 4.8 | 0.00 | 0.00 | 0.00 | 90 | 1025.6 |
| 20260830154450 | 22 | 72 | 0.0 | 4.8 | 0.00 | 0.00 | 0.00 | 90 | 1025.6 |
| 20260830154347 | 22 | 67 | 0.0 | 4.8 | 0.00 | 0.00 | 0.00 | 90 | 1025.6 |
| 20260830154249 | 22 | 58 | 0.0 | 4.8 | 0.00 | 0.00 | 0.00 | 90 | 1025.6 |
| 20260830154146 | 22 | 57 | 0.0 | 4.8 | 0.00 | 0.00 | 0.00 | 90 | 1025.7 |
| 20260830153918 | 22 | 50 | 0.0 | 3.2 | 0.00 | 0.00 | 0.00 | 91 | 1025.7 |
| 20260830153818 | 22 | 49 | 0.0 | 0.0 | 0.00 | 0.00 | 0.00 | 91 | 1025.7 |
| 20260830153717 | 22 | 49 | 0.0 | 0.0 | 0.00 | 0.00 | 0.00 | 91 | 1025.7 |
| 20260830153617 | 22 | 49 | 0.0 | 0.0 | 0.00 | 0.00 | 0.00 | 91 | 1025.7 |
| 20260830153517 | 22 | 49 | 0.0 | 0.0 | 0.00 | 0.00 | 0.00 | 91 | 1025.7 |
| 20260830153418 | 22 | 49 | 0.0 | 0.0 | 0.00 | 0.00 | 0.00 | 91 | 1025.7 |
| 20260830153316 | 22 | 49 | 0.0 | 0.0 | 0.00 | 0.00 | 0.00 | 91 | 1025.7 |
| 20260830153215 | 22 | 28 | 0.0 | 0.0 | 0.00 | 0.00 | 0.00 | 91 | 1025.8 |
| 20260830153113 | 22 | 327 | 0.0 | 0.0 | 0.00 | 0.00 | 0.00 | 91 | 1025.8 |
| 20260830153011 | 22 | 327 | 0.0 | 0.0 | 0.00 | 0.00 | 0.00 | 91 | 1025.7 |
| 20260830152906 | 22 | 327 | 0.0 | 0.0 | 0.00 | 0.00 | 0.00 | 91 | 1025.7 |
| 20260830152805 | 22 | 327 | 0.0 | 0.0 | 0.00 | 0.00 | 0.00 | 92 | 1025.8 |
| 20260830152705 | 22 | 328 | 0.0 | 0.0 | 0.00 | 0.00 | 0.00 | 92 | 1025.8 |
| 20260830152606 | 22 | 329 | 0.0 | 0.0 | 0.00 | 0.00 | 0.00 | 92 | 1025.8 |
| 20260830152505 | 21 | 315 | 0.0 | 0.0 | 0.00 | 0.00 | 0.00 | 92 | 1025.7 |
| 20260830152357 | 21 | 333 | 0.0 | 0.0 | 0.00 | 0.00 | 0.00 | 92 | 1025.7 |
| 20260830152257 | 21 | 323 | 0.0 | 0.0 | 0.00 | 0.00 | 0.00 | 92 | 1025.6 |
| 20260830152156 | 21 | 340 | 0.0 | 0.0 | 0.00 | 0.00 | 0.00 | 92 | 1025.7 |
| 20260830152055 | 21 | 351 | 0.0 | 0.0 | 0.00 | 0.00 | 0.00 | 93 | 1025.7 |
| 20260830151954 | 21 | 5 | 0.0 | 0.0 | 0.00 | 0.00 | 0.00 | 93 | 1025.8 |
| 20260830151849 | 21 | 329 | 0.0 | 0.0 | 0.00 | 0.00 | 0.00 | 93 | 1025.7 |
| 20260830151748 | 21 | 329 | 0.0 | 0.0 | 0.00 | 0.00 | 0.00 | 93 | 1025.8 |
| 20260830151647 | 21 | 329 | 0.0 | 0.0 | 0.00 | 0.00 | 0.00 | 93 | 1025.7 |
| 20260830151547 | 21 | 329 | 0.0 | 0.0 | 0.00 | 0.00 | 0.00 | 93 | 1025.7 |
| 20260830151448 | 21 | 329 | 0.0 | 0.0 | 0.00 | 0.00 | 0.00 | 93 | 1025.7 |
| 20260830151344 | 21 | 329 | 0.0 | 0.0 | 0.00 | 0.00 | 0.00 | 93 | 1025.8 |
| 20260830151242 | 21 | 329 | 0.0 | 0.0 | 0.00 | 0.00 | 0.00 | 93 | 1025.8 |
| 20260830151142 | 21 | 329 | 0.0 | 0.0 | 0.00 | 0.00 | 0.00 | 93 | 1025.8 |
| 20260830151042 | 21 | 329 | 0.0 | 0.0 | 0.00 | 0.00 | 0.00 | 93 | 1025.8 |
| 20260830150941 | 21 | 329 | 0.0 | 0.0 | 0.00 | 0.00 | 0.00 | 93 | 1025.8 |
| 20260830150831 | 21 | 329 | 0.0 | 0.0 | 0.00 | 0.00 | 0.00 | 93 | 1025.8 |
| 20260830150732 | 21 | 329 | 0.0 | 0.0 | 0.00 | 0.00 | 0.00 | 93 | 1025.7 |
| 20260830150632 | 21 | 329 | 0.0 | 0.0 | 0.00 | 0.00 | 0.00 | 94 | 1025.7 |
| 20260830150531 | 21 | 293 | 0.0 | 0.0 | 0.00 | 0.00 | 0.00 | 94 | 1025.7 |
| 20260830150432 | 21 | 292 | 0.0 | 0.0 | 0.00 | 0.00 | 0.00 | 94 | 1025.7 |
| 20260830150331 | 21 | 292 | 0.0 | 0.0 | 0.00 | 0.00 | 0.00 | 94 | 1025.7 |
| 20260830150230 | 21 | 323 | 0.0 | 0.0 | 0.00 | 0.00 | 0.00 | 94 | 1025.7 |
| 20260830150129 | 21 | 314 | 0.0 | 0.0 | 0.00 | 0.00 | 0.00 | 94 | 1025.7 |
| 20260830150028 | 21 | 14 | 0.0 | 0.0 | 0.00 | 0.00 | 0.00 | 94 | 1025.7 |
| 20260830145926 | 21 | 335 | 0.0 | 0.0 | 0.00 | 0.00 | 0.00 | 94 | 1025.7 |
| 20260830145822 | 21 | 337 | 0.0 | 0.0 | 0.00 | 0.00 | 0.00 | 94 | 1025.7 |
| 20260830145719 | 21 | 338 | 0.0 | 0.0 | 0.00 | 0.00 | 0.00 | 94 | 1025.9 |
| 20260830145620 | 21 | 339 | 0.0 | 0.0 | 0.00 | 0.00 | 0.00 | 94 | 1025.7 |
| 20260830145520 | 21 | 339 | 0.0 | 0.0 | 0.00 | 0.00 | 0.00 | 94 | 1025.7 |
| 20260830145419 | 21 | 339 | 0.0 | 0.0 | 0.00 | 0.00 | 0.00 | 94 | 1025.7 |
| 20260830145310 | 21 | 341 | 0.0 | 0.0 | 0.00 | 0.00 | 0.00 | 94 | 1025.8 |
| 20260830145210 | 21 | 342 | 0.0 | 0.0 | 0.00 | 0.00 | 0.00 | 94 | 1025.8 |
| 20260830145110 | 21 | 319 | 0.0 | 0.0 | 0.00 | 0.00 | 0.00 | 94 | 1025.8 |
| 20260830145010 | 21 | 331 | 0.0 | 0.0 | 0.00 | 0.00 | 0.00 | 94 | 1025.9 |
| 20260830144910 | 21 | 332 | 0.0 | 0.0 | 0.00 | 0.00 | 0.00 | 94 | 1025.9 |
| 20260830144808 | 21 | 315 | 0.0 | 0.0 | 0.00 | 0.00 | 0.00 | 94 | 1025.9 |
| 20260830144706 | 21 | 316 | 0.0 | 0.0 | 0.00 | 0.00 | 0.00 | 94 | 1025.8 |
| 20260830144607 | 21 | 302 | 0.0 | 0.0 | 0.00 | 0.00 | 0.00 | 94 | 1025.9 |
| 20260830144505 | 21 | 311 | 0.0 | 0.0 | 0.00 | 0.00 | 0.00 | 95 | 1025.9 |
| 20260830144403 | 21 | 329 | 0.0 | 0.0 | 0.00 | 0.00 | 0.00 | 95 | 1025.9 |
| 20260830144300 | 21 | 292 | 0.0 | 0.0 | 0.00 | 0.00 | 0.00 | 95 | 1025.8 |
| 20260830144157 | 21 | 315 | 0.0 | 0.0 | 0.00 | 0.00 | 0.00 | 95 | 1025.9 |
| 20260830144058 | 21 | 319 | 0.0 | 0.0 | 0.00 | 0.00 | 0.00 | 95 | 1025.8 |
| 20260830143958 | 21 | 343 | 0.0 | 0.0 | 0.00 | 0.00 | 0.00 | 95 | 1025.8 |
| 20260830143858 | 21 | 344 | 0.0 | 0.0 | 0.00 | 0.00 | 0.00 | 95 | 1025.8 |
| 20260830143747 | 21 | 34 | 0.0 | 0.0 | 0.00 | 0.00 | 0.00 | 96 | 1025.9 |
| 20260830143648 | 21 | 93 | 0.0 | 0.0 | 0.00 | 0.00 | 0.00 | 96 | 1025.9 |
| 20260830143547 | 21 | 103 | 0.0 | 0.0 | 0.00 | 0.00 | 0.00 | 96 | 1025.9 |
| 20260830143446 | 21 | 103 | 0.0 | 0.0 | 0.00 | 0.00 | 0.00 | 96 | 1025.9 |
| 20260830143348 | 21 | 103 | 0.0 | 0.0 | 0.00 | 0.00 | 0.00 | 96 | 1025.8 |
| 20260830143243 | 21 | 103 | 0.0 | 0.0 | 0.00 | 0.00 | 0.00 | 96 | 1025.8 |
| 20260830143141 | 21 | 103 | 0.0 | 0.0 | 0.00 | 0.00 | 0.00 | 96 | 1025.8 |
| 20260830143041 | 21 | 120 | 0.0 | 0.0 | 0.00 | 0.00 | 0.00 | 96 | 1025.8 |
| 20260830142943 | 21 | 119 | 0.0 | 0.0 | 0.00 | 0.00 | 0.00 | 97 | 1025.8 |
| 20260830142842 | 21 | 118 | 0.0 | 0.0 | 0.00 | 0.00 | 0.00 | 97 | 1025.8 |
| 20260830142736 | 21 | 117 | 0.0 | 0.0 | 0.00 | 0.00 | 0.00 | 97 | 1025.8 |
| 20260830142638 | 21 | 117 | 0.0 | 0.0 | 0.00 | 0.00 | 0.00 | 97 | 1025.9 |
| 20260830142537 | 21 | 117 | 0.0 | 0.0 | 0.00 | 0.00 | 0.00 | 97 | 1025.9 |
| 20260830142437 | 21 | 99 | 0.0 | 0.0 | 0.00 | 0.00 | 0.00 | 97 | 1025.8 |
| 20260830142336 | 21 | 84 | 0.0 | 0.0 | 0.00 | 0.00 | 0.00 | 97 | 1025.9 |
| 20260830142229 | 21 | 45 | 0.0 | 0.0 | 0.00 | 0.00 | 0.00 | 97 | 1025.8 |
| 20260830142125 | 21 | 53 | 0.0 | 0.0 | 0.00 | 0.00 | 0.00 | 97 | 1025.8 |
| 20260830142024 | 21 | 79 | 0.0 | 0.0 | 0.00 | 0.00 | 0.00 | 97 | 1025.8 |
| 20260830141926 | 21 | 90 | 0.0 | 0.0 | 0.00 | 0.00 | 0.00 | 98 | 1025.7 |
| 20260830141825 | 21 | 92 | 0.0 | 0.0 | 0.00 | 0.00 | 0.00 | 98 | 1025.7 |
| 20260830141720 | 21 | 144 | 0.0 | 0.0 | 0.00 | 0.00 | 0.00 | 97 | 1025.8 |
| 20260830141620 | 21 | 151 | 0.0 | 0.0 | 0.00 | 0.00 | 0.00 | 97 | 1025.8 |
| 20260830141521 | 20 | 78 | 0.0 | 0.0 | 0.00 | 0.00 | 0.00 | 97 | 1025.8 |
| 20260830141420 | 20 | 77 | 0.0 | 0.0 | 0.00 | 0.00 | 0.00 | 97 | 1025.7 |
| 20260830141320 | 20 | 43 | 0.0 | 0.0 | 0.00 | 0.00 | 0.00 | 97 | 1025.7 |
| 20260830141216 | 20 | 43 | 0.0 | 0.0 | 0.00 | 0.00 | 0.00 | 97 | 1025.8 |
| 20260830141118 | 20 | 34 | 0.0 | 0.0 | 0.00 | 0.00 | 0.00 | 97 | 1025.8 |
| 20260830141016 | 20 | 34 | 0.0 | 0.0 | 0.00 | 0.00 | 0.00 | 97 | 1025.7 |
| 20260830140915 | 20 | 34 | 0.0 | 0.0 | 0.00 | 0.00 | 0.00 | 97 | 1025.7 |
| 20260830140814 | 20 | 34 | 0.0 | 0.0 | 0.00 | 0.00 | 0.00 | 97 | 1025.7 |
| 20260830140706 | 20 | 34 | 0.0 | 0.0 | 0.00 | 0.00 | 0.00 | 97 | 1025.6 |
| 20260830140604 | 20 | 36 | 0.0 | 0.0 | 0.00 | 0.00 | 0.00 | 97 | 1025.6 |
| 20260830140502 | 20 | 33 | 0.0 | 0.0 | 0.00 | 0.00 | 0.00 | 97 | 1025.7 |
| 20260830140405 | 20 | 32 | 0.0 | 0.0 | 0.00 | 0.00 | 0.00 | 97 | 1025.6 |
| 20260830140303 | 20 | 31 | 0.0 | 0.0 | 0.00 | 0.00 | 0.00 | 97 | 1025.6 |
| 20260830140158 | 20 | 30 | 0.0 | 0.0 | 0.00 | 0.00 | 0.00 | 97 | 1025.7 |
| 20260830140057 | 20 | 80 | 0.0 | 0.0 | 0.00 | 0.00 | 0.00 | 97 | 1025.6 |
| 20260830135957 | 20 | 80 | 0.0 | 0.0 | 0.00 | 0.00 | 0.00 | 97 | 1025.7 |
| 20260830135858 | 20 | 80 | 0.0 | 0.0 | 0.00 | 0.00 | 0.00 | 97 | 1025.6 |
| 20260830135757 | 20 | 80 | 0.0 | 0.0 | 0.00 | 0.00 | 0.00 | 97 | 1025.6 |
| 20260830135657 | 20 | 80 | 0.0 | 0.0 | 0.00 | 0.00 | 0.00 | 97 | 1025.6 |
| 20260830135557 | 20 | 80 | 0.0 | 0.0 | 0.00 | 0.00 | 0.00 | 97 | 1025.6 |
| 20260830135455 | 20 | 80 | 0.0 | 0.0 | 0.00 | 0.00 | 0.00 | 97 | 1025.6 |
| 20260830135353 | 20 | 80 | 0.0 | 0.0 | 0.00 | 0.00 | 0.00 | 97 | 1025.5 |
| 20260830135251 | 20 | 80 | 0.0 | 0.0 | 0.00 | 0.00 | 0.00 | 97 | 1025.5 |
| 20260830135144 | 20 | 80 | 0.0 | 0.0 | 0.00 | 0.00 | 0.00 | 97 | 1025.5 |
| 20260830135042 | 20 | 80 | 0.0 | 0.0 | 0.00 | 0.00 | 0.00 | 97 | 1025.5 |
| 20260830134941 | 20 | 80 | 0.0 | 0.0 | 0.00 | 0.00 | 0.00 | 97 | 1025.5 |
| 20260830134842 | 20 | 80 | 0.0 | 0.0 | 0.00 | 0.00 | 0.00 | 97 | 1025.5 |
| 20260830134742 | 20 | 80 | 0.0 | 0.0 | 0.00 | 0.00 | 0.00 | 97 | 1025.5 |
| 20260830134638 | 20 | 80 | 0.0 | 0.0 | 0.00 | 0.00 | 0.00 | 97 | 1025.6 |
| 20260830134537 | 20 | 80 | 0.0 | 0.0 | 0.00 | 0.00 | 0.00 | 97 | 1025.5 |
| 20260830134438 | 20 | 80 | 0.0 | 0.0 | 0.00 | 0.00 | 0.00 | 97 | 1025.5 |
| 20260830134338 | 20 | 80 | 0.0 | 0.0 | 0.00 | 0.00 | 0.00 | 97 | 1025.6 |
| 20260830134236 | 20 | 80 | 0.0 | 0.0 | 0.00 | 0.00 | 0.00 | 97 | 1025.6 |
| 20260830134136 | 20 | 80 | 0.0 | 0.0 | 0.00 | 0.00 | 0.00 | 97 | 1025.5 |
| 20260830134033 | 20 | 80 | 0.0 | 0.0 | 0.00 | 0.00 | 0.00 | 97 | 1025.5 |
| 20260830133933 | 20 | 80 | 0.0 | 0.0 | 0.00 | 0.00 | 0.00 | 97 | 1025.6 |
| 20260830133832 | 20 | 80 | 0.0 | 0.0 | 0.00 | 0.00 | 0.00 | 97 | 1025.6 |
| 20260830133730 | 20 | 80 | 0.0 | 0.0 | 0.00 | 0.00 | 0.00 | 97 | 1025.6 |
| 20260830133624 | 20 | 80 | 0.0 | 0.0 | 0.00 | 0.00 | 0.00 | 97 | 1025.6 |
| 20260830133524 | 20 | 80 | 0.0 | 0.0 | 0.00 | 0.00 | 0.00 | 97 | 1025.6 |
| 20260830133422 | 20 | 80 | 0.0 | 0.0 | 0.00 | 0.00 | 0.00 | 97 | 1025.5 |
| 20260830133321 | 20 | 80 | 0.0 | 0.0 | 0.00 | 0.00 | 0.00 | 97 | 1025.5 |
| 20260830133220 | 20 | 80 | 0.0 | 0.0 | 0.00 | 0.00 | 0.00 | 97 | 1025.6 |
| 20260830133115 | 20 | 80 | 0.0 | 0.0 | 0.00 | 0.00 | 0.00 | 97 | 1025.7 |
| 20260830133012 | 20 | 80 | 0.0 | 0.0 | 0.00 | 0.00 | 0.00 | 97 | 1025.6 |
| 20260830132914 | 20 | 80 | 0.0 | 0.0 | 0.00 | 0.00 | 0.00 | 97 | 1025.7 |
| 20260830132814 | 20 | 80 | 0.0 | 0.0 | 0.00 | 0.00 | 0.00 | 97 | 1025.6 |
| 20260830132714 | 20 | 80 | 0.0 | 0.0 | 0.00 | 0.00 | 0.00 | 97 | 1025.7 |
| 20260830132613 | 20 | 80 | 0.0 | 0.0 | 0.00 | 0.00 | 0.00 | 97 | 1025.7 |
| 20260830132512 | 20 | 80 | 0.0 | 0.0 | 0.00 | 0.00 | 0.00 | 97 | 1025.7 |
| 20260830132410 | 20 | 80 | 0.0 | 0.0 | 0.00 | 0.00 | 0.00 | 97 | 1025.7 |
| 20260830132310 | 20 | 80 | 0.0 | 0.0 | 0.00 | 0.00 | 0.00 | 97 | 1025.7 |
| 20260830132207 | 20 | 80 | 0.0 | 0.0 | 0.00 | 0.00 | 0.00 | 97 | 1025.7 |
| 20260830132101 | 20 | 80 | 0.0 | 0.0 | 0.00 | 0.00 | 0.00 | 97 | 1025.7 |
| 20260830132002 | 20 | 115 | 0.0 | 0.0 | 0.00 | 0.00 | 0.00 | 97 | 1025.7 |
| 20260830131900 | 20 | 115 | 0.0 | 0.0 | 0.00 | 0.00 | 0.00 | 97 | 1025.7 |
| 20260830131800 | 20 | 115 | 0.0 | 0.0 | 0.00 | 0.00 | 0.00 | 97 | 1025.7 |
| 20260830131658 | 20 | 115 | 0.0 | 0.0 | 0.00 | 0.00 | 0.00 | 97 | 1025.8 |
| 20260830131555 | 20 | 115 | 0.0 | 0.0 | 0.00 | 0.00 | 0.00 | 97 | 1025.8 |
| 20260830131454 | 20 | 115 | 0.0 | 0.0 | 0.00 | 0.00 | 0.00 | 97 | 1025.8 |
| 20260830131356 | 20 | 115 | 0.0 | 0.0 | 0.00 | 0.00 | 0.00 | 97 | 1025.8 |
| 20260830131254 | 20 | 115 | 0.0 | 0.0 | 0.00 | 0.00 | 0.00 | 97 | 1025.8 |
| 20260830131152 | 20 | 115 | 0.0 | 0.0 | 0.00 | 0.00 | 0.00 | 97 | 1025.8 |
| 20260830131051 | 20 | 115 | 0.0 | 0.0 | 0.00 | 0.00 | 0.00 | 97 | 1025.9 |
| 20260830130950 | 20 | 115 | 0.0 | 0.0 | 0.00 | 0.00 | 0.00 | 97 | 1025.8 |
| 20260830130849 | 20 | 115 | 0.0 | 0.0 | 0.00 | 0.00 | 0.00 | 97 | 1025.8 |
| 20260830130748 | 20 | 115 | 0.0 | 0.0 | 0.00 | 0.00 | 0.00 | 97 | 1025.9 |
| 20260830130646 | 20 | 115 | 0.0 | 0.0 | 0.00 | 0.00 | 0.00 | 97 | 1025.8 |
| 20260830130538 | 20 | 115 | 0.0 | 0.0 | 0.00 | 0.00 | 0.00 | 97 | 1025.9 |
| 20260830130440 | 20 | 115 | 0.0 | 0.0 | 0.00 | 0.00 | 0.00 | 97 | 1025.9 |
| 20260830130340 | 20 | 115 | 0.0 | 0.0 | 0.00 | 0.00 | 0.00 | 97 | 1025.8 |
| 20260830130238 | 20 | 115 | 0.0 | 0.0 | 0.00 | 0.00 | 0.00 | 97 | 1025.9 |
| 20260830130135 | 20 | 115 | 0.0 | 0.0 | 0.00 | 0.00 | 0.00 | 97 | 1025.9 |
| 20260830130036 | 20 | 115 | 0.0 | 0.0 | 0.00 | 0.00 | 0.00 | 97 | 1025.8 |
| 20260830125933 | 20 | 115 | 0.0 | 0.0 | 0.00 | 0.00 | 0.00 | 97 | 1025.8 |
| 20260830125834 | 20 | 115 | 0.0 | 0.0 | 0.00 | 0.00 | 0.00 | 97 | 1025.8 |
| 20260830125732 | 20 | 115 | 0.0 | 0.0 | 0.00 | 0.00 | 0.00 | 97 | 1025.8 |
| 20260830125630 | 20 | 115 | 0.0 | 0.0 | 0.00 | 0.00 | 0.00 | 97 | 1025.8 |
| 20260830125529 | 20 | 115 | 0.0 | 0.0 | 0.00 | 0.00 | 0.00 | 97 | 1025.8 |
| 20260830125428 | 20 | 115 | 0.0 | 0.0 | 0.00 | 0.00 | 0.00 | 97 | 1025.9 |
| 20260830125327 | 20 | 115 | 0.0 | 0.0 | 0.00 | 0.00 | 0.00 | 97 | 1025.8 |
| 20260830125226 | 20 | 115 | 0.0 | 0.0 | 0.00 | 0.00 | 0.00 | 97 | 1025.8 |
| 20260830125124 | 20 | 115 | 0.0 | 0.0 | 0.00 | 0.00 | 0.00 | 97 | 1025.7 |
| 20260830125019 | 20 | 115 | 0.0 | 0.0 | 0.00 | 0.00 | 0.00 | 97 | 1025.7 |
| 20260830124918 | 20 | 115 | 0.0 | 0.0 | 0.00 | 0.00 | 0.00 | 97 | 1025.7 |
| 20260830124817 | 20 | 115 | 0.0 | 0.0 | 0.00 | 0.00 | 0.00 | 97 | 1025.7 |
| 20260830124716 | 20 | 115 | 0.0 | 0.0 | 0.00 | 0.00 | 0.00 | 97 | 1025.7 |
| 20260830124614 | 20 | 115 | 0.0 | 0.0 | 0.00 | 0.00 | 0.00 | 97 | 1025.7 |
| 20260830124511 | 20 | 115 | 0.0 | 0.0 | 0.00 | 0.00 | 0.00 | 97 | 1025.7 |
| 20260830124412 | 20 | 115 | 0.0 | 0.0 | 0.00 | 0.00 | 0.00 | 97 | 1025.7 |
| 20260830124309 | 20 | 115 | 0.0 | 0.0 | 0.00 | 0.00 | 0.00 | 97 | 1025.7 |
| 20260830124209 | 20 | 115 | 0.0 | 0.0 | 0.00 | 0.00 | 0.00 | 97 | 1025.7 |
| 20260830124108 | 20 | 115 | 0.0 | 0.0 | 0.00 | 0.00 | 0.00 | 97 | 1025.7 |
| 20260830124003 | 20 | 115 | 0.0 | 0.0 | 0.00 | 0.00 | 0.00 | 97 | 1025.7 |
| 20260830123904 | 20 | 115 | 0.0 | 0.0 | 0.00 | 0.00 | 0.00 | 97 | 1025.6 |
| 20260830123803 | 20 | 115 | 0.0 | 0.0 | 0.00 | 0.00 | 0.00 | 97 | 1025.6 |
| 20260830123704 | 20 | 115 | 0.0 | 0.0 | 0.00 | 0.00 | 0.00 | 97 | 1025.6 |
| 20260830123602 | 20 | 115 | 0.0 | 0.0 | 0.00 | 0.00 | 0.00 | 97 | 1025.6 |
| 20260830123452 | 20 | 115 | 0.0 | 0.0 | 0.00 | 0.00 | 0.00 | 97 | 1025.6 |
| 20260830123352 | 20 | 115 | 0.0 | 0.0 | 0.00 | 0.00 | 0.00 | 97 | 1025.5 |
| 20260830123250 | 20 | 115 | 0.0 | 0.0 | 0.00 | 0.00 | 0.00 | 97 | 1025.5 |
| 20260830123152 | 20 | 115 | 0.0 | 0.0 | 0.00 | 0.00 | 0.00 | 97 | 1025.5 |
| 20260830123052 | 20 | 115 | 0.0 | 0.0 | 0.00 | 0.00 | 0.00 | 97 | 1025.5 |
| 20260830122951 | 20 | 115 | 0.0 | 0.0 | 0.00 | 0.00 | 0.00 | 97 | 1025.6 |
| 20260830122850 | 20 | 115 | 0.0 | 0.0 | 0.00 | 0.00 | 0.00 | 97 | 1025.5 |
| 20260830122750 | 20 | 115 | 0.0 | 0.0 | 0.00 | 0.00 | 0.00 | 97 | 1025.5 |
| 20260830122648 | 20 | 115 | 0.0 | 0.0 | 0.00 | 0.00 | 0.00 | 97 | 1025.5 |
| 20260830122545 | 20 | 115 | 0.0 | 0.0 | 0.00 | 0.00 | 0.00 | 97 | 1025.5 |
| 20260830122446 | 20 | 115 | 0.0 | 0.0 | 0.00 | 0.00 | 0.00 | 97 | 1025.5 |
| 20260830122342 | 20 | 115 | 0.0 | 0.0 | 0.00 | 0.00 | 0.00 | 97 | 1025.5 |
| 20260830122244 | 20 | 115 | 0.0 | 0.0 | 0.00 | 0.00 | 0.00 | 97 | 1025.4 |
| 20260830122143 | 20 | 115 | 0.0 | 0.0 | 0.00 | 0.00 | 0.00 | 97 | 1025.5 |
| 20260830122040 | 20 | 115 | 0.0 | 0.0 | 0.00 | 0.00 | 0.00 | 97 | 1025.5 |
| 20260830121930 | 20 | 115 | 0.0 | 0.0 | 0.00 | 0.00 | 0.00 | 97 | 1025.4 |
| 20260830121831 | 20 | 115 | 0.0 | 0.0 | 0.00 | 0.00 | 0.00 | 97 | 1025.4 |
| 20260830121732 | 20 | 115 | 0.0 | 0.0 | 0.00 | 0.00 | 0.00 | 97 | 1025.3 |
| 20260830121631 | 20 | 115 | 0.0 | 0.0 | 0.00 | 0.00 | 0.00 | 97 | 1025.3 |
| 20260830121529 | 20 | 115 | 0.0 | 0.0 | 0.00 | 0.00 | 0.00 | 97 | 1025.3 |
| 20260830121430 | 20 | 115 | 0.0 | 0.0 | 0.00 | 0.00 | 0.00 | 97 | 1025.2 |
| 20260830121327 | 20 | 114 | 0.0 | 0.0 | 0.00 | 0.00 | 0.00 | 97 | 1025.2 |
| 20260830121227 | 20 | 113 | 0.0 | 0.0 | 0.00 | 0.00 | 0.00 | 97 | 1025.2 |
| 20260830121125 | 20 | 113 | 0.0 | 0.0 | 0.00 | 0.00 | 0.00 | 97 | 1025.2 |
| 20260830121024 | 20 | 113 | 0.0 | 0.0 | 0.00 | 0.00 | 0.00 | 97 | 1025.1 |
| 20260830120924 | 20 | 113 | 0.0 | 0.0 | 0.00 | 0.00 | 0.00 | 97 | 1025.2 |
| 20260830120822 | 20 | 113 | 0.0 | 0.0 | 0.00 | 0.00 | 0.00 | 97 | 1025.1 |
| 20260830120721 | 20 | 113 | 0.0 | 0.0 | 0.00 | 0.00 | 0.00 | 97 | 1025.2 |
| 20260830120620 | 20 | 120 | 0.0 | 0.0 | 0.00 | 0.00 | 0.00 | 97 | 1025.2 |
| 20260830120517 | 20 | 122 | 0.0 | 0.0 | 0.00 | 0.00 | 0.00 | 97 | 1025.2 |
| 20260830120413 | 20 | 144 | 0.0 | 0.0 | 0.00 | 0.00 | 0.00 | 97 | 1025.2 |
| 20260830120312 | 20 | 144 | 0.0 | 0.0 | 0.00 | 0.00 | 0.00 | 97 | 1025.2 |
| 20260830120211 | 20 | 146 | 0.0 | 0.0 | 0.00 | 0.00 | 0.00 | 97 | 1025.2 |
| 20260830120110 | 20 | 147 | 0.0 | 0.0 | 0.00 | 0.00 | 0.00 | 97 | 1025.1 |
| 20260830120008 | 20 | 150 | 0.0 | 0.0 | 0.00 | 0.00 | 0.00 | 97 | 1025.1 |
| 20260830115901 | 20 | 143 | 0.0 | 0.0 | 0.00 | 0.00 | 0.00 | 97 | 1025.2 |
| 20260830115801 | 20 | 107 | 0.0 | 0.0 | 0.00 | 0.00 | 0.00 | 97 | 1025.2 |
| 20260830115701 | 20 | 107 | 0.0 | 0.0 | 0.00 | 0.00 | 0.00 | 97 | 1025.1 |
| 20260830115602 | 20 | 106 | 0.0 | 0.0 | 0.00 | 0.00 | 0.00 | 97 | 1025.1 |
| 20260830115502 | 20 | 102 | 0.0 | 0.0 | 0.00 | 0.00 | 0.00 | 97 | 1025.1 |
| 20260830115358 | 20 | 127 | 0.0 | 0.0 | 0.00 | 0.00 | 0.00 | 97 | 1025.1 |
| 20260830115254 | 20 | 126 | 0.0 | 0.0 | 0.00 | 0.00 | 0.00 | 97 | 1024.9 |
| 20260830115156 | 20 | 126 | 0.0 | 0.0 | 0.00 | 0.00 | 0.00 | 97 | 1025.1 |
| 20260830115055 | 20 | 128 | 0.0 | 0.0 | 0.00 | 0.00 | 0.00 | 97 | 1025.1 |
| 20260830114955 | 20 | 128 | 0.0 | 0.0 | 0.00 | 0.00 | 0.00 | 97 | 1024.9 |
| 20260830114846 | 20 | 122 | 0.0 | 0.0 | 0.00 | 0.00 | 0.00 | 97 | 1025.1 |
| 20260830114745 | 20 | 122 | 0.0 | 0.0 | 0.00 | 0.00 | 0.00 | 97 | 1025.1 |
| 20260830114644 | 20 | 121 | 0.0 | 0.0 | 0.00 | 0.00 | 0.00 | 97 | 1024.9 |
| 20260830114545 | 20 | 121 | 0.0 | 0.0 | 0.00 | 0.00 | 0.00 | 97 | 1025.1 |
| 20260830114445 | 20 | 121 | 0.0 | 0.0 | 0.00 | 0.00 | 0.00 | 97 | 1024.9 |
| 20260830114346 | 20 | 121 | 0.0 | 0.0 | 0.00 | 0.00 | 0.00 | 97 | 1025.1 |
| 20260830114243 | 20 | 121 | 0.0 | 0.0 | 0.00 | 0.00 | 0.00 | 97 | 1024.9 |
| 20260830114144 | 20 | 121 | 0.0 | 0.0 | 0.00 | 0.00 | 0.00 | 97 | 1024.9 |
| 20260830114041 | 20 | 121 | 0.0 | 0.0 | 0.00 | 0.00 | 0.00 | 97 | 1024.9 |
| 20260830113939 | 20 | 123 | 0.0 | 0.0 | 0.00 | 0.00 | 0.00 | 97 | 1024.9 |
| 20260830113840 | 20 | 123 | 0.0 | 0.0 | 0.00 | 0.00 | 0.00 | 97 | 1024.9 |
| 20260830113737 | 20 | 123 | 0.0 | 0.0 | 0.00 | 0.00 | 0.00 | 97 | 1024.9 |
| 20260830113638 | 20 | 123 | 0.0 | 0.0 | 0.00 | 0.00 | 0.00 | 97 | 1024.9 |
| 20260830113535 | 20 | 124 | 0.0 | 0.0 | 0.00 | 0.00 | 0.00 | 97 | 1024.9 |
| 20260830113434 | 20 | 125 | 0.0 | 0.0 | 0.00 | 0.00 | 0.00 | 97 | 1024.8 |
| 20260830113329 | 20 | 125 | 0.0 | 0.0 | 0.00 | 0.00 | 0.00 | 97 | 1024.8 |
| 20260830113227 | 20 | 125 | 0.0 | 0.0 | 0.00 | 0.00 | 0.00 | 97 | 1024.8 |
| 20260830113126 | 20 | 125 | 0.0 | 0.0 | 0.00 | 0.00 | 0.00 | 97 | 1024.8 |
| 20260830113026 | 20 | 125 | 0.0 | 0.0 | 0.00 | 0.00 | 0.00 | 97 | 1024.8 |
| 20260830112923 | 20 | 126 | 0.0 | 0.0 | 0.00 | 0.00 | 0.00 | 97 | 1024.7 |
| 20260830112821 | 20 | 125 | 0.0 | 0.0 | 0.00 | 0.00 | 0.00 | 97 | 1024.8 |
| 20260830112721 | 20 | 125 | 0.0 | 0.0 | 0.00 | 0.00 | 0.00 | 97 | 1024.8 |
| 20260830112621 | 20 | 125 | 0.0 | 0.0 | 0.00 | 0.00 | 0.00 | 97 | 1024.8 |
| 20260830112519 | 20 | 125 | 0.0 | 0.0 | 0.00 | 0.00 | 0.00 | 97 | 1024.8 |
| 20260830112417 | 20 | 125 | 0.0 | 0.0 | 0.00 | 0.00 | 0.00 | 97 | 1024.8 |
| 20260830112318 | 20 | 125 | 0.0 | 0.0 | 0.00 | 0.00 | 0.00 | 97 | 1024.8 |
| 20260830112215 | 20 | 125 | 0.0 | 0.0 | 0.00 | 0.00 | 0.00 | 97 | 1024.8 |
| 20260830112113 | 20 | 125 | 0.0 | 0.0 | 0.00 | 0.00 | 0.00 | 97 | 1024.9 |
| 20260830112014 | 20 | 126 | 0.0 | 0.0 | 0.00 | 0.00 | 0.00 | 97 | 1024.8 |
| 20260830111912 | 20 | 125 | 0.0 | 0.0 | 0.00 | 0.00 | 0.00 | 97 | 1024.8 |
| 20260830111803 | 20 | 125 | 0.0 | 0.0 | 0.00 | 0.00 | 0.00 | 97 | 1024.8 |
| 20260830111701 | 20 | 125 | 0.0 | 0.0 | 0.00 | 0.00 | 0.00 | 97 | 1024.7 |
| 20260830111601 | 20 | 125 | 0.0 | 0.0 | 0.00 | 0.00 | 0.00 | 97 | 1024.7 |
| 20260830111501 | 20 | 125 | 0.0 | 0.0 | 0.00 | 0.00 | 0.00 | 97 | 1024.8 |
| 20260830111402 | 20 | 125 | 0.0 | 0.0 | 0.00 | 0.00 | 0.00 | 97 | 1024.7 |
| 20260830111257 | 20 | 125 | 0.0 | 0.0 | 0.00 | 0.00 | 0.00 | 97 | 1024.8 |
| 20260830111157 | 20 | 125 | 0.0 | 0.0 | 0.00 | 0.00 | 0.00 | 97 | 1024.8 |
| 20260830111054 | 20 | 125 | 0.0 | 0.0 | 0.00 | 0.00 | 0.00 | 97 | 1024.7 |
| 20260830110956 | 20 | 125 | 0.0 | 0.0 | 0.00 | 0.00 | 0.00 | 97 | 1024.8 |
| 20260830110856 | 20 | 125 | 0.0 | 0.0 | 0.00 | 0.00 | 0.00 | 97 | 1024.8 |
| 20260830110756 | 20 | 125 | 0.0 | 0.0 | 0.00 | 0.00 | 0.00 | 97 | 1024.7 |
| 20260830110654 | 19 | 126 | 0.0 | 0.0 | 0.00 | 0.00 | 0.00 | 97 | 1024.6 |
| 20260830110552 | 20 | 126 | 0.0 | 0.0 | 0.00 | 0.00 | 0.00 | 97 | 1024.7 |
| 20260830110450 | 20 | 126 | 0.0 | 0.0 | 0.00 | 0.00 | 0.00 | 97 | 1024.7 |
| 20260830110349 | 19 | 126 | 0.0 | 0.0 | 0.00 | 0.00 | 0.00 | 97 | 1024.6 |
| 20260830110249 | 20 | 126 | 0.0 | 0.0 | 0.00 | 0.00 | 0.00 | 97 | 1024.7 |
| 20260830110148 | 20 | 126 | 0.0 | 0.0 | 0.00 | 0.00 | 0.00 | 97 | 1024.6 |
| 20260830110044 | 20 | 126 | 0.0 | 0.0 | 0.00 | 0.00 | 0.00 | 97 | 1024.6 |
| 20260830105945 | 19 | 126 | 0.0 | 0.0 | 0.00 | 0.00 | 0.00 | 96 | 1024.6 |
| 20260830105846 | 20 | 126 | 0.0 | 0.0 | 0.00 | 0.00 | 0.00 | 97 | 1024.5 |
| 20260830105742 | 19 | 126 | 0.0 | 0.0 | 0.00 | 0.00 | 0.00 | 96 | 1024.5 |
| 20260830105641 | 20 | 126 | 0.0 | 0.0 | 0.00 | 0.00 | 0.00 | 96 | 1024.5 |
| 20260830105538 | 19 | 126 | 0.0 | 0.0 | 0.00 | 0.00 | 0.00 | 96 | 1024.5 |
| 20260830105440 | 20 | 126 | 0.0 | 0.0 | 0.00 | 0.00 | 0.00 | 96 | 1024.5 |
| 20260830105338 | 20 | 126 | 0.0 | 0.0 | 0.00 | 0.00 | 0.00 | 96 | 1024.5 |
| 20260830105229 | 20 | 126 | 0.0 | 0.0 | 0.00 | 0.00 | 0.00 | 96 | 1024.4 |
| 20260830105128 | 20 | 126 | 0.0 | 0.0 | 0.00 | 0.00 | 0.00 | 96 | 1024.4 |
| 20260830105027 | 20 | 126 | 0.0 | 0.0 | 0.00 | 0.00 | 0.00 | 96 | 1024.4 |
| 20260830104925 | 20 | 126 | 0.0 | 0.0 | 0.00 | 0.00 | 0.00 | 97 | 1024.4 |
| 20260830104824 | 20 | 126 | 0.0 | 0.0 | 0.00 | 0.00 | 0.00 | 97 | 1024.3 |
| 20260830104718 | 20 | 126 | 0.0 | 0.0 | 0.00 | 0.00 | 0.00 | 97 | 1024.3 |
| 20260830104616 | 20 | 126 | 0.0 | 0.0 | 0.00 | 0.00 | 0.00 | 97 | 1024.4 |
| 20260830104517 | 20 | 126 | 0.0 | 0.0 | 0.00 | 0.00 | 0.00 | 97 | 1024.3 |
| 20260830104416 | 20 | 126 | 0.0 | 0.0 | 0.00 | 0.00 | 0.00 | 97 | 1024.3 |
| 20260830104313 | 20 | 126 | 0.0 | 0.0 | 0.00 | 0.00 | 0.00 | 97 | 1024.3 |
| 20260830104213 | 20 | 126 | 0.0 | 0.0 | 0.00 | 0.00 | 0.00 | 97 | 1024.3 |
| 20260830104112 | 20 | 126 | 0.0 | 0.0 | 0.00 | 0.00 | 0.00 | 97 | 1024.3 |
| 20260830104011 | 20 | 126 | 0.0 | 0.0 | 0.00 | 0.00 | 0.00 | 97 | 1024.2 |
| 20260830103910 | 20 | 126 | 0.0 | 0.0 | 0.00 | 0.00 | 0.00 | 97 | 1024.2 |
| 20260830103807 | 20 | 126 | 0.0 | 0.0 | 0.00 | 0.00 | 0.00 | 97 | 1024.3 |
| 20260830103704 | 20 | 126 | 0.0 | 0.0 | 0.00 | 0.00 | 0.00 | 97 | 1024.2 |
| 20260830103604 | 20 | 126 | 0.0 | 0.0 | 0.00 | 0.00 | 0.00 | 97 | 1024.2 |
| 20260830103502 | 20 | 126 | 0.0 | 0.0 | 0.00 | 0.00 | 0.00 | 97 | 1024.2 |
| 20260830103404 | 20 | 126 | 0.0 | 0.0 | 0.00 | 0.00 | 0.00 | 97 | 1024.2 |
| 20260830103301 | 20 | 126 | 0.0 | 0.0 | 0.00 | 0.00 | 0.00 | 97 | 1024.2 |
| 20260830103152 | 20 | 126 | 0.0 | 0.0 | 0.00 | 0.00 | 0.00 | 97 | 1024.2 |
| 20260830103052 | 20 | 126 | 0.0 | 0.0 | 0.00 | 0.00 | 0.00 | 97 | 1024.3 |
| 20260830102950 | 20 | 126 | 0.0 | 0.0 | 0.00 | 0.00 | 0.00 | 97 | 1024.2 |
| 20260830102852 | 20 | 126 | 0.0 | 0.0 | 0.00 | 0.00 | 0.00 | 97 | 1024.2 |
| 20260830102751 | 20 | 126 | 0.0 | 0.0 | 0.00 | 0.00 | 0.00 | 97 | 1024.2 |
| 20260830102652 | 20 | 126 | 0.0 | 0.0 | 0.00 | 0.00 | 0.00 | 97 | 1024.2 |
| 20260830102548 | 20 | 126 | 0.0 | 0.0 | 0.00 | 0.00 | 0.00 | 97 | 1024.2 |
| 20260830102450 | 20 | 126 | 0.0 | 0.0 | 0.00 | 0.00 | 0.00 | 97 | 1024.3 |
| 20260830102346 | 20 | 126 | 0.0 | 0.0 | 0.00 | 0.00 | 0.00 | 97 | 1024.2 |
| 20260830102246 | 20 | 126 | 0.0 | 0.0 | 0.00 | 0.00 | 0.00 | 97 | 1024.2 |
| 20260830102144 | 20 | 126 | 0.0 | 0.0 | 0.00 | 0.00 | 0.00 | 97 | 1024.2 |
| 20260830102044 | 20 | 126 | 0.0 | 0.0 | 0.00 | 0.00 | 0.00 | 97 | 1024.1 |
| 20260830101941 | 20 | 126 | 0.0 | 0.0 | 0.00 | 0.00 | 0.00 | 97 | 1024.2 |
| 20260830101840 | 20 | 126 | 0.0 | 0.0 | 0.00 | 0.00 | 0.00 | 97 | 1024.2 |
| 20260830101740 | 20 | 126 | 0.0 | 0.0 | 0.00 | 0.00 | 0.00 | 97 | 1024.2 |
| 20260830101630 | 20 | 126 | 0.0 | 0.0 | 0.00 | 0.00 | 0.00 | 97 | 1024.2 |
| 20260830101530 | 20 | 126 | 0.0 | 0.0 | 0.00 | 0.00 | 0.00 | 97 | 1024.2 |
| 20260830101428 | 20 | 126 | 0.0 | 0.0 | 0.00 | 0.00 | 0.00 | 97 | 1024.2 |
| 20260830101330 | 20 | 126 | 0.0 | 0.0 | 0.00 | 0.00 | 0.00 | 97 | 1024.1 |
| 20260830101227 | 20 | 126 | 0.0 | 0.0 | 0.00 | 0.00 | 0.00 | 97 | 1024.1 |
| 20260830101124 | 20 | 126 | 0.0 | 0.0 | 0.00 | 0.00 | 0.00 | 97 | 1024.1 |
| 20260830101020 | 20 | 126 | 0.0 | 0.0 | 0.00 | 0.00 | 0.00 | 97 | 1024.1 |
| 20260830100922 | 20 | 126 | 0.0 | 0.0 | 0.00 | 0.00 | 0.00 | 97 | 1024.1 |
| 20260830100822 | 20 | 126 | 0.0 | 0.0 | 0.00 | 0.00 | 0.00 | 97 | 1024.1 |
| 20260830100721 | 20 | 126 | 0.0 | 0.0 | 0.00 | 0.00 | 0.00 | 97 | 1024.1 |
| 20260830100617 | 20 | 126 | 0.0 | 0.0 | 0.00 | 0.00 | 0.00 | 97 | 1024.1 |
| 20260830100515 | 20 | 126 | 0.0 | 0.0 | 0.00 | 0.00 | 0.00 | 97 | 1024.1 |
| 20260830100413 | 20 | 126 | 0.0 | 0.0 | 0.00 | 0.00 | 0.00 | 97 | 1024.1 |
| 20260830100313 | 20 | 126 | 0.0 | 0.0 | 0.00 | 0.00 | 0.00 | 97 | 1024.0 |
| 20260830100214 | 20 | 126 | 0.0 | 0.0 | 0.00 | 0.00 | 0.00 | 97 | 1023.9 |
| 20260830100107 | 20 | 126 | 0.0 | 0.0 | 0.00 | 0.00 | 0.00 | 97 | 1023.9 |
| 20260830100008 | 20 | 126 | 0.0 | 0.0 | 0.00 | 0.00 | 0.00 | 97 | 1024.0 |
| 20260830095904 | 20 | 126 | 0.0 | 0.0 | 0.00 | 0.00 | 0.00 | 97 | 1024.0 |
| 20260830095806 | 20 | 126 | 0.0 | 0.0 | 0.00 | 0.00 | 0.00 | 97 | 1024.1 |
| 20260830095704 | 20 | 126 | 0.0 | 0.0 | 0.00 | 0.00 | 0.00 | 97 | 1024.1 |
| 20260830095604 | 20 | 126 | 0.0 | 0.0 | 0.00 | 0.00 | 0.00 | 97 | 1024.1 |
| 20260830095503 | 20 | 126 | 0.0 | 0.0 | 0.00 | 0.00 | 0.00 | 97 | 1024.1 |
| 20260830095403 | 20 | 126 | 0.0 | 0.0 | 0.00 | 0.00 | 0.00 | 96 | 1024.1 |
| 20260830095306 | 20 | 126 | 0.0 | 0.0 | 0.00 | 0.00 | 0.00 | 96 | 1024.0 |
| 20260830095200 | 20 | 126 | 0.0 | 0.0 | 0.00 | 0.00 | 0.00 | 97 | 1024.0 |
| 20260830095101 | 20 | 126 | 0.0 | 0.0 | 0.00 | 0.00 | 0.00 | 97 | 1024.0 |
| 20260830095000 | 20 | 126 | 0.0 | 0.0 | 0.00 | 0.00 | 0.00 | 97 | 1024.1 |
| 20260830094900 | 20 | 126 | 0.0 | 0.0 | 0.00 | 0.00 | 0.00 | 97 | 1024.0 |
| 20260830094757 | 20 | 126 | 0.0 | 0.0 | 0.00 | 0.00 | 0.00 | 97 | 1024.0 |
| 20260830094658 | 20 | 126 | 0.0 | 0.0 | 0.00 | 0.00 | 0.00 | 96 | 1024.1 |
| 20260830094557 | 20 | 126 | 0.0 | 0.0 | 0.00 | 0.00 | 0.00 | 96 | 1024.1 |
| 20260830094454 | 20 | 126 | 0.0 | 0.0 | 0.00 | 0.00 | 0.00 | 96 | 1024.1 |
| 20260830094355 | 20 | 126 | 0.0 | 0.0 | 0.00 | 0.00 | 0.00 | 96 | 1024.0 |
| 20260830094253 | 20 | 126 | 0.0 | 0.0 | 0.00 | 0.00 | 0.00 | 97 | 1024.0 |
| 20260830094151 | 20 | 126 | 0.0 | 0.0 | 0.00 | 0.00 | 0.00 | 96 | 1024.1 |
| 20260830094052 | 20 | 126 | 0.0 | 0.0 | 0.00 | 0.00 | 0.00 | 96 | 1024.1 |
| 20260830093948 | 20 | 126 | 0.0 | 0.0 | 0.00 | 0.00 | 0.00 | 97 | 1024.0 |
| 20260830093850 | 20 | 126 | 0.0 | 0.0 | 0.00 | 0.00 | 0.00 | 96 | 1024.1 |
| 20260830093747 | 20 | 126 | 0.0 | 0.0 | 0.00 | 0.00 | 0.00 | 96 | 1024.1 |
| 20260830093648 | 20 | 126 | 0.0 | 0.0 | 0.00 | 0.00 | 0.00 | 96 | 1024.1 |
| 20260830093546 | 20 | 126 | 0.0 | 0.0 | 0.00 | 0.00 | 0.00 | 96 | 1024.1 |
| 20260830093442 | 20 | 126 | 0.0 | 0.0 | 0.00 | 0.00 | 0.00 | 96 | 1024.1 |
| 20260830093344 | 20 | 126 | 0.0 | 0.0 | 0.00 | 0.00 | 0.00 | 96 | 1024.1 |
| 20260830093240 | 20 | 126 | 0.0 | 0.0 | 0.00 | 0.00 | 0.00 | 96 | 1024.0 |
| 20260830093141 | 20 | 126 | 0.0 | 0.0 | 0.00 | 0.00 | 0.00 | 96 | 1024.0 |
| 20260830093041 | 20 | 126 | 0.0 | 0.0 | 0.00 | 0.00 | 0.00 | 96 | 1024.0 |
| 20260830092940 | 20 | 126 | 0.0 | 0.0 | 0.00 | 0.00 | 0.00 | 96 | 1024.0 |
| 20260830092834 | 20 | 126 | 0.0 | 0.0 | 0.00 | 0.00 | 0.00 | 96 | 1024.0 |
| 20260830092734 | 20 | 126 | 0.0 | 0.0 | 0.00 | 0.00 | 0.00 | 96 | 1024.0 |
| 20260830092632 | 20 | 126 | 0.0 | 0.0 | 0.00 | 0.00 | 0.00 | 96 | 1024.1 |
| 20260830092534 | 20 | 126 | 0.0 | 0.0 | 0.00 | 0.00 | 0.00 | 96 | 1024.0 |
| 20260830092432 | 20 | 126 | 0.0 | 0.0 | 0.00 | 0.00 | 0.00 | 96 | 1024.0 |
| 20260830092334 | 20 | 126 | 0.0 | 0.0 | 0.00 | 0.00 | 0.00 | 96 | 1024.0 |
| 20260830092232 | 20 | 126 | 0.0 | 0.0 | 0.00 | 0.00 | 0.00 | 96 | 1024.0 |
| 20260830092130 | 20 | 126 | 0.0 | 0.0 | 0.00 | 0.00 | 0.00 | 96 | 1024.1 |
| 20260830092032 | 20 | 126 | 0.0 | 0.0 | 0.00 | 0.00 | 0.00 | 96 | 1023.9 |
| 20260830091929 | 20 | 126 | 0.0 | 0.0 | 0.00 | 0.00 | 0.00 | 96 | 1024.0 |
| 20260830091830 | 20 | 126 | 0.0 | 0.0 | 0.00 | 0.00 | 0.00 | 96 | 1023.9 |
| 20260830091728 | 20 | 126 | 0.0 | 0.0 | 0.00 | 0.00 | 0.00 | 96 | 1023.9 |
| 20260830091629 | 20 | 126 | 0.0 | 0.0 | 0.00 | 0.00 | 0.00 | 96 | 1024.0 |
| 20260830091529 | 20 | 126 | 0.0 | 0.0 | 0.00 | 0.00 | 0.00 | 96 | 1024.0 |
| 20260830091429 | 20 | 126 | 0.0 | 0.0 | 0.00 | 0.00 | 0.00 | 96 | 1023.9 |
| 20260830091327 | 20 | 126 | 0.0 | 0.0 | 0.00 | 0.00 | 0.00 | 96 | 1024.1 |
| 20260830091228 | 20 | 126 | 0.0 | 0.0 | 0.00 | 0.00 | 0.00 | 96 | 1024.1 |
| 20260830091124 | 20 | 126 | 0.0 | 0.0 | 0.00 | 0.00 | 0.00 | 96 | 1024.1 |
| 20260830091023 | 20 | 126 | 0.0 | 0.0 | 0.00 | 0.00 | 0.00 | 96 | 1024.1 |
| 20260830090923 | 20 | 126 | 0.0 | 0.0 | 0.00 | 0.00 | 0.00 | 96 | 1024.1 |
| 20260830090823 | 20 | 126 | 0.0 | 0.0 | 0.00 | 0.00 | 0.00 | 96 | 1024.1 |
| 20260830090723 | 20 | 126 | 0.0 | 0.0 | 0.00 | 0.00 | 0.00 | 96 | 1024.0 |
| 20260830090623 | 20 | 126 | 0.0 | 0.0 | 0.00 | 0.00 | 0.00 | 96 | 1024.1 |
| 20260830090524 | 20 | 126 | 0.0 | 0.0 | 0.00 | 0.00 | 0.00 | 96 | 1024.0 |
| 20260830090424 | 20 | 126 | 0.0 | 0.0 | 0.00 | 0.00 | 0.00 | 96 | 1024.1 |
| 20260830090323 | 20 | 126 | 0.0 | 0.0 | 0.00 | 0.00 | 0.00 | 96 | 1024.0 |
| 20260830090223 | 20 | 126 | 0.0 | 0.0 | 0.00 | 0.00 | 0.00 | 96 | 1024.1 |
| 20260830090122 | 20 | 113 | 0.0 | 0.0 | 0.00 | 0.00 | 0.00 | 96 | 1024.1 |
| 20260830090024 | 20 | 114 | 0.0 | 0.0 | 0.00 | 0.00 | 0.00 | 96 | 1024.1 |
| 20260830085922 | 20 | 114 | 0.0 | 0.0 | 0.00 | 0.00 | 0.00 | 96 | 1024.1 |
| 20260830085823 | 20 | 115 | 0.0 | 0.0 | 0.00 | 0.00 | 0.00 | 96 | 1024.2 |
| 20260830085722 | 20 | 115 | 0.0 | 0.0 | 0.00 | 0.00 | 0.00 | 96 | 1024.1 |
| 20260830085624 | 20 | 115 | 0.0 | 0.0 | 0.00 | 0.00 | 0.00 | 96 | 1024.1 |
| 20260830085522 | 20 | 115 | 0.0 | 0.0 | 0.00 | 0.00 | 0.00 | 96 | 1024.1 |
| 20260830085424 | 20 | 110 | 0.0 | 0.0 | 0.00 | 0.00 | 0.00 | 96 | 1024.1 |
| 20260830085323 | 20 | 112 | 0.0 | 0.0 | 0.00 | 0.00 | 0.00 | 96 | 1024.2 |
| 20260830085222 | 20 | 113 | 0.0 | 0.0 | 0.00 | 0.00 | 0.00 | 96 | 1024.2 |
| 20260830085122 | 20 | 109 | 0.0 | 0.0 | 0.00 | 0.00 | 0.00 | 96 | 1024.1 |
| 20260830085023 | 20 | 111 | 0.0 | 0.0 | 0.00 | 0.00 | 0.00 | 96 | 1024.1 |
| 20260830084923 | 20 | 111 | 0.0 | 0.0 | 0.00 | 0.00 | 0.00 | 96 | 1024.0 |
| 20260830084822 | 20 | 109 | 0.0 | 0.0 | 0.00 | 0.00 | 0.00 | 96 | 1024.1 |
| 20260830084722 | 20 | 117 | 0.0 | 0.0 | 0.00 | 0.00 | 0.00 | 96 | 1024.1 |
| 20260830084623 | 20 | 119 | 0.0 | 0.0 | 0.00 | 0.00 | 0.00 | 96 | 1024.2 |
| 20260830084515 | 20 | 119 | 0.0 | 0.0 | 0.00 | 0.00 | 0.00 | 96 | 1024.1 |
| 20260830084415 | 20 | 119 | 0.0 | 0.0 | 0.00 | 0.00 | 0.00 | 96 | 1024.1 |
| 20260830084314 | 20 | 119 | 0.0 | 0.0 | 0.00 | 0.00 | 0.00 | 96 | 1024.1 |
| 20260830084215 | 20 | 119 | 0.0 | 0.0 | 0.00 | 0.00 | 0.00 | 96 | 1024.2 |
| 20260830084115 | 20 | 119 | 0.0 | 0.0 | 0.00 | 0.00 | 0.00 | 96 | 1024.2 |
| 20260830084015 | 20 | 119 | 0.0 | 0.0 | 0.00 | 0.00 | 0.00 | 96 | 1024.2 |
| 20260830083914 | 20 | 119 | 0.0 | 0.0 | 0.00 | 0.00 | 0.00 | 96 | 1024.2 |
| 20260830083816 | 20 | 119 | 0.0 | 0.0 | 0.00 | 0.00 | 0.00 | 96 | 1024.2 |
| 20260830083714 | 20 | 119 | 0.0 | 0.0 | 0.00 | 0.00 | 0.00 | 96 | 1024.1 |
| 20260830083616 | 20 | 119 | 0.0 | 0.0 | 0.00 | 0.00 | 0.00 | 96 | 1024.2 |
| 20260830083514 | 20 | 119 | 0.0 | 0.0 | 0.00 | 0.00 | 0.00 | 96 | 1024.2 |
| 20260830083414 | 20 | 119 | 0.0 | 0.0 | 0.00 | 0.00 | 0.00 | 96 | 1024.2 |
| 20260830083315 | 20 | 119 | 0.0 | 0.0 | 0.00 | 0.00 | 0.00 | 96 | 1024.2 |
| 20260830083216 | 20 | 119 | 0.0 | 0.0 | 0.00 | 0.00 | 0.00 | 96 | 1024.2 |
| 20260830083116 | 20 | 119 | 0.0 | 0.0 | 0.00 | 0.00 | 0.00 | 96 | 1024.2 |
| 20260830083016 | 20 | 120 | 0.0 | 0.0 | 0.00 | 0.00 | 0.00 | 96 | 1024.2 |
| 20260830082915 | 20 | 120 | 0.0 | 0.0 | 0.00 | 0.00 | 0.00 | 96 | 1024.3 |
| 20260830082814 | 20 | 120 | 0.0 | 0.0 | 0.00 | 0.00 | 0.00 | 96 | 1024.4 |
| 20260830082714 | 20 | 120 | 0.0 | 0.0 | 0.00 | 0.00 | 0.00 | 96 | 1024.3 |
| 20260830082615 | 20 | 120 | 0.0 | 0.0 | 0.00 | 0.00 | 0.00 | 96 | 1024.3 |
| 20260830082514 | 20 | 120 | 0.0 | 0.0 | 0.00 | 0.00 | 0.00 | 96 | 1024.3 |
| 20260830082415 | 20 | 120 | 0.0 | 0.0 | 0.00 | 0.00 | 0.00 | 96 | 1024.4 |
| 20260830082315 | 20 | 120 | 0.0 | 0.0 | 0.00 | 0.00 | 0.00 | 96 | 1024.4 |
| 20260830082214 | 20 | 120 | 0.0 | 0.0 | 0.00 | 0.00 | 0.00 | 96 | 1024.4 |
| 20260830082115 | 20 | 121 | 0.0 | 0.0 | 0.00 | 0.00 | 0.00 | 96 | 1024.4 |
| 20260830082015 | 20 | 120 | 0.0 | 0.0 | 0.00 | 0.00 | 0.00 | 96 | 1024.3 |
| 20260830081915 | 20 | 120 | 0.0 | 0.0 | 0.00 | 0.00 | 0.00 | 96 | 1024.4 |
| 20260830081815 | 20 | 120 | 0.0 | 0.0 | 0.00 | 0.00 | 0.00 | 96 | 1024.3 |
| 20260830081715 | 20 | 120 | 0.0 | 0.0 | 0.00 | 0.00 | 0.00 | 96 | 1024.4 |
| 20260830081615 | 20 | 121 | 0.0 | 0.0 | 0.00 | 0.00 | 0.00 | 96 | 1024.4 |
| 20260830081514 | 20 | 121 | 0.0 | 0.0 | 0.00 | 0.00 | 0.00 | 96 | 1024.4 |
| 20260830081415 | 20 | 121 | 0.0 | 0.0 | 0.00 | 0.00 | 0.00 | 96 | 1024.3 |
| 20260830081315 | 20 | 120 | 0.0 | 0.0 | 0.00 | 0.00 | 0.00 | 96 | 1024.3 |
| 20260830081211 | 20 | 112 | 0.0 | 0.0 | 0.00 | 0.00 | 0.00 | 96 | 1024.3 |
| 20260830081111 | 20 | 112 | 0.0 | 0.0 | 0.00 | 0.00 | 0.00 | 96 | 1024.3 |
| 20260830081010 | 20 | 112 | 0.0 | 0.0 | 0.00 | 0.00 | 0.00 | 96 | 1024.2 |
| 20260830080910 | 20 | 112 | 0.0 | 0.0 | 0.00 | 0.00 | 0.00 | 96 | 1024.3 |
| 20260830080811 | 20 | 112 | 0.0 | 0.0 | 0.00 | 0.00 | 0.00 | 96 | 1024.2 |
| 20260830080711 | 20 | 112 | 0.0 | 0.0 | 0.00 | 0.00 | 0.00 | 96 | 1024.3 |
| 20260830080611 | 20 | 112 | 0.0 | 0.0 | 0.00 | 0.00 | 0.00 | 96 | 1024.3 |
| 20260830080511 | 20 | 112 | 0.0 | 0.0 | 0.00 | 0.00 | 0.00 | 96 | 1024.3 |
| 20260830080411 | 20 | 112 | 0.0 | 0.0 | 0.00 | 0.00 | 0.00 | 96 | 1024.2 |
| 20260830080311 | 20 | 113 | 0.0 | 0.0 | 0.00 | 0.00 | 0.00 | 96 | 1024.2 |
| 20260830080212 | 20 | 113 | 0.0 | 0.0 | 0.00 | 0.00 | 0.00 | 96 | 1024.3 |
| 20260830080110 | 20 | 113 | 0.0 | 0.0 | 0.00 | 0.00 | 0.00 | 96 | 1024.3 |
| 20260830080011 | 20 | 113 | 0.0 | 0.0 | 0.00 | 0.00 | 0.00 | 96 | 1024.3 |
| 20260830075910 | 20 | 113 | 0.0 | 0.0 | 0.00 | 0.00 | 0.00 | 96 | 1024.4 |
| 20260830075810 | 20 | 113 | 0.0 | 0.0 | 0.00 | 0.00 | 0.00 | 96 | 1024.4 |
| 20260830075711 | 20 | 113 | 0.0 | 0.0 | 0.00 | 0.00 | 0.00 | 96 | 1024.4 |
| 20260830075611 | 20 | 81 | 0.0 | 0.0 | 0.00 | 0.00 | 0.00 | 96 | 1024.4 |
| 20260830075512 | 20 | 81 | 0.0 | 0.0 | 0.00 | 0.00 | 0.00 | 96 | 1024.4 |
| 20260830075410 | 20 | 80 | 0.0 | 0.0 | 0.00 | 0.00 | 0.00 | 96 | 1024.4 |
| 20260830075312 | 20 | 80 | 0.0 | 0.0 | 0.00 | 0.00 | 0.00 | 96 | 1024.4 |
| 20260830075210 | 20 | 80 | 0.0 | 0.0 | 0.00 | 0.00 | 0.00 | 96 | 1024.4 |
| 20260830075110 | 20 | 80 | 0.0 | 0.0 | 0.00 | 0.00 | 0.00 | 96 | 1024.4 |
| 20260830075011 | 20 | 80 | 0.0 | 0.0 | 0.00 | 0.00 | 0.00 | 96 | 1024.4 |
| 20260830074910 | 20 | 80 | 0.0 | 0.0 | 0.00 | 0.00 | 0.00 | 96 | 1024.4 |
| 20260830074812 | 20 | 80 | 0.0 | 0.0 | 0.00 | 0.00 | 0.00 | 96 | 1024.3 |
| 20260830074712 | 20 | 80 | 0.0 | 0.0 | 0.00 | 0.00 | 0.00 | 96 | 1024.4 |
| 20260830074610 | 20 | 80 | 0.0 | 0.0 | 0.00 | 0.00 | 0.00 | 96 | 1024.3 |
| 20260830074511 | 20 | 80 | 0.0 | 0.0 | 0.00 | 0.00 | 0.00 | 96 | 1024.4 |
| 20260830074410 | 20 | 80 | 0.0 | 0.0 | 0.00 | 0.00 | 0.00 | 96 | 1024.4 |
| 20260830074311 | 20 | 80 | 0.0 | 0.0 | 0.00 | 0.00 | 0.00 | 96 | 1024.3 |
| 20260830074210 | 20 | 80 | 0.0 | 0.0 | 0.00 | 0.00 | 0.00 | 96 | 1024.4 |
| 20260830074112 | 20 | 80 | 0.0 | 0.0 | 0.00 | 0.00 | 0.00 | 96 | 1024.3 |
| 20260830074011 | 20 | 80 | 0.0 | 0.0 | 0.00 | 0.00 | 0.00 | 96 | 1024.3 |
| 20260830073907 | 20 | 80 | 0.0 | 0.0 | 0.00 | 0.00 | 0.00 | 96 | 1024.3 |
| 20260830073806 | 20 | 80 | 0.0 | 0.0 | 0.00 | 0.00 | 0.00 | 96 | 1024.5 |
| 20260830073708 | 20 | 80 | 0.0 | 0.0 | 0.00 | 0.00 | 0.00 | 96 | 1024.4 |
| 20260830073606 | 20 | 80 | 0.0 | 0.0 | 0.00 | 0.00 | 0.00 | 96 | 1024.5 |
| 20260830073506 | 20 | 80 | 0.0 | 0.0 | 0.00 | 0.00 | 0.00 | 96 | 1024.4 |
| 20260830073408 | 20 | 80 | 0.0 | 0.0 | 0.00 | 0.00 | 0.00 | 96 | 1024.5 |
| 20260830073306 | 20 | 80 | 0.0 | 0.0 | 0.00 | 0.00 | 0.00 | 96 | 1024.5 |
| 20260830073208 | 20 | 80 | 0.0 | 0.0 | 0.00 | 0.00 | 0.00 | 96 | 1024.4 |
| 20260830073108 | 20 | 80 | 0.0 | 0.0 | 0.00 | 0.00 | 0.00 | 96 | 1024.4 |
| 20260830073007 | 20 | 80 | 0.0 | 0.0 | 0.00 | 0.00 | 0.00 | 96 | 1024.4 |
| 20260830072907 | 20 | 80 | 0.0 | 0.0 | 0.00 | 0.00 | 0.00 | 96 | 1024.5 |
| 20260830072806 | 20 | 80 | 0.0 | 0.0 | 0.00 | 0.00 | 0.00 | 96 | 1024.4 |
| 20260830072707 | 20 | 80 | 0.0 | 0.0 | 0.00 | 0.00 | 0.00 | 96 | 1024.4 |
| 20260830072606 | 20 | 80 | 0.0 | 0.0 | 0.00 | 0.00 | 0.00 | 96 | 1024.4 |
| 20260830072508 | 20 | 80 | 0.0 | 0.0 | 0.00 | 0.00 | 0.00 | 96 | 1024.4 |
| 20260830072406 | 20 | 80 | 0.0 | 0.0 | 0.00 | 0.00 | 0.00 | 96 | 1024.4 |
| 20260830072307 | 20 | 80 | 0.0 | 0.0 | 0.00 | 0.00 | 0.00 | 96 | 1024.3 |
| 20260830072207 | 20 | 80 | 0.0 | 0.0 | 0.00 | 0.00 | 0.00 | 96 | 1024.4 |
| 20260830072106 | 20 | 80 | 0.0 | 0.0 | 0.00 | 0.00 | 0.00 | 96 | 1024.4 |
| 20260830072006 | 20 | 80 | 0.0 | 0.0 | 0.00 | 0.00 | 0.00 | 96 | 1024.4 |
| 20260830071908 | 20 | 80 | 0.0 | 0.0 | 0.00 | 0.00 | 0.00 | 96 | 1024.4 |
| 20260830071806 | 20 | 80 | 0.0 | 0.0 | 0.00 | 0.00 | 0.00 | 96 | 1024.3 |
| 20260830071707 | 20 | 80 | 0.0 | 0.0 | 0.00 | 0.00 | 0.00 | 96 | 1024.3 |
| 20260830071607 | 20 | 80 | 0.0 | 0.0 | 0.00 | 0.00 | 0.00 | 96 | 1024.3 |
| 20260830071506 | 20 | 80 | 0.0 | 0.0 | 0.00 | 0.00 | 0.00 | 96 | 1024.3 |
| 20260830071408 | 20 | 80 | 0.0 | 0.0 | 0.00 | 0.00 | 0.00 | 96 | 1024.3 |
| 20260830071306 | 20 | 80 | 0.0 | 0.0 | 0.00 | 0.00 | 0.00 | 96 | 1024.3 |
| 20260830071207 | 20 | 80 | 0.0 | 0.0 | 0.00 | 0.00 | 0.00 | 96 | 1024.3 |
| 20260830071106 | 20 | 80 | 0.0 | 0.0 | 0.00 | 0.00 | 0.00 | 96 | 1024.3 |
| 20260830071008 | 20 | 80 | 0.0 | 0.0 | 0.00 | 0.00 | 0.00 | 96 | 1024.3 |
| 20260830070906 | 20 | 80 | 0.0 | 0.0 | 0.00 | 0.00 | 0.00 | 96 | 1024.4 |
| 20260830070807 | 20 | 80 | 0.0 | 0.0 | 0.00 | 0.00 | 0.00 | 96 | 1024.3 |
| 20260830070708 | 20 | 80 | 0.0 | 0.0 | 0.00 | 0.00 | 0.00 | 96 | 1024.3 |
| 20260830070604 | 20 | 80 | 0.0 | 0.0 | 0.00 | 0.00 | 0.00 | 96 | 1024.3 |
| 20260830070502 | 20 | 80 | 0.0 | 0.0 | 0.00 | 0.00 | 0.00 | 96 | 1024.3 |
| 20260830070402 | 20 | 80 | 0.0 | 0.0 | 0.00 | 0.00 | 0.00 | 96 | 1024.4 |
| 20260830070302 | 20 | 80 | 0.0 | 0.0 | 0.00 | 0.00 | 0.00 | 96 | 1024.3 |
| 20260830070202 | 20 | 80 | 0.0 | 0.0 | 0.00 | 0.00 | 0.00 | 96 | 1024.3 |
| 20260830070003 | 20 | 80 | 0.0 | 0.0 | 0.00 | 0.00 | 0.00 | 96 | 1024.4 |
| 20260830065902 | 20 | 80 | 0.0 | 0.0 | 0.00 | 0.00 | 0.00 | 96 | 1024.3 |
| 20260830065803 | 20 | 80 | 0.0 | 0.0 | 0.00 | 0.00 | 0.00 | 96 | 1024.4 |
| 20260830065700 | 20 | 80 | 0.0 | 0.0 | 0.00 | 0.00 | 0.00 | 96 | 1024.4 |
| 20260830065601 | 20 | 80 | 0.0 | 0.0 | 0.00 | 0.00 | 0.00 | 96 | 1024.4 |
| 20260830065500 | 20 | 80 | 0.0 | 0.0 | 0.00 | 0.00 | 0.00 | 96 | 1024.4 |
| 20260830065359 | 20 | 80 | 0.0 | 0.0 | 0.00 | 0.00 | 0.00 | 96 | 1024.4 |
| 20260830065256 | 20 | 80 | 0.0 | 0.0 | 0.00 | 0.00 | 0.00 | 96 | 1024.5 |
| 20260830065157 | 20 | 80 | 0.0 | 0.0 | 0.00 | 0.00 | 0.00 | 96 | 1024.4 |
| 20260830065055 | 20 | 80 | 0.0 | 0.0 | 0.00 | 0.00 | 0.00 | 96 | 1024.5 |
| 20260830064955 | 20 | 80 | 0.0 | 0.0 | 0.00 | 0.00 | 0.00 | 96 | 1024.4 |
| 20260830064855 | 20 | 80 | 0.0 | 0.0 | 0.00 | 0.00 | 0.00 | 96 | 1024.5 |
| 20260830064752 | 20 | 80 | 0.0 | 1.6 | 0.00 | 0.00 | 0.00 | 96 | 1024.5 |
| 20260830064653 | 20 | 80 | 0.0 | 1.6 | 0.00 | 0.00 | 0.00 | 96 | 1024.4 |
| 20260830064551 | 20 | 80 | 0.0 | 3.2 | 0.00 | 0.00 | 0.00 | 96 | 1024.5 |
| 20260830064449 | 20 | 80 | 0.0 | 3.2 | 0.00 | 0.00 | 0.00 | 96 | 1024.6 |
| 20260830064345 | 20 | 80 | 0.0 | 3.2 | 0.00 | 0.00 | 0.00 | 96 | 1024.5 |
| 20260830064242 | 20 | 80 | 0.0 | 3.2 | 0.00 | 0.00 | 0.00 | 96 | 1024.5 |
| 20260830064143 | 20 | 80 | 0.0 | 3.2 | 0.00 | 0.00 | 0.00 | 96 | 1024.4 |
| 20260830064041 | 20 | 80 | 0.0 | 3.2 | 0.00 | 0.00 | 0.00 | 96 | 1024.5 |
| 20260830063938 | 20 | 80 | 0.0 | 3.2 | 0.00 | 0.00 | 0.00 | 96 | 1024.5 |
| 20260830063839 | 20 | 80 | 0.0 | 3.2 | 0.00 | 0.00 | 0.00 | 96 | 1024.5 |
| 20260830063736 | 20 | 80 | 0.0 | 3.2 | 0.00 | 0.00 | 0.00 | 96 | 1024.6 |
| 20260830063637 | 20 | 80 | 0.0 | 3.2 | 0.00 | 0.00 | 0.00 | 96 | 1024.6 |
| 20260830063535 | 20 | 80 | 0.0 | 3.2 | 0.00 | 0.00 | 0.00 | 96 | 1024.6 |
| 20260830063433 | 20 | 80 | 0.0 | 3.2 | 0.00 | 0.00 | 0.00 | 96 | 1024.6 |
| 20260830063331 | 20 | 80 | 0.0 | 1.6 | 0.00 | 0.00 | 0.00 | 96 | 1024.5 |
| 20260830063232 | 20 | 80 | 0.0 | 1.6 | 0.00 | 0.00 | 0.00 | 96 | 1024.6 |
| 20260830063130 | 20 | 80 | 0.0 | 1.6 | 0.00 | 0.00 | 0.00 | 96 | 1024.6 |
| 20260830063028 | 20 | 80 | 0.0 | 0.0 | 0.00 | 0.00 | 0.00 | 96 | 1024.6 |
| 20260830062927 | 20 | 80 | 0.0 | 0.0 | 0.00 | 0.00 | 0.00 | 96 | 1024.6 |
| 20260830062822 | 21 | 80 | 0.0 | 0.0 | 0.00 | 0.00 | 0.00 | 96 | 1024.6 |
| 20260830062722 | 20 | 80 | 0.0 | 1.6 | 0.00 | 0.00 | 0.00 | 96 | 1024.6 |
| 20260830062621 | 20 | 80 | 0.0 | 1.6 | 0.00 | 0.00 | 0.00 | 96 | 1024.7 |
| 20260830062518 | 21 | 80 | 0.0 | 1.6 | 0.00 | 0.00 | 0.00 | 96 | 1024.6 |
| 20260830062416 | 20 | 80 | 0.0 | 1.6 | 0.00 | 0.00 | 0.00 | 96 | 1024.6 |
| 20260830062310 | 21 | 80 | 0.0 | 3.2 | 0.00 | 0.00 | 0.00 | 96 | 1024.6 |
| 20260830062211 | 20 | 80 | 0.0 | 3.2 | 0.00 | 0.00 | 0.00 | 96 | 1024.7 |
| 20260830062111 | 21 | 80 | 1.6 | 3.2 | 0.00 | 0.00 | 0.00 | 96 | 1024.6 |
| 20260830062011 | 21 | 80 | 1.6 | 3.2 | 0.00 | 0.00 | 0.00 | 96 | 1024.7 |
| 20260830061911 | 21 | 80 | 1.6 | 3.2 | 0.00 | 0.00 | 0.00 | 96 | 1024.6 |
| 20260830061804 | 21 | 80 | 1.6 | 3.2 | 0.00 | 0.00 | 0.00 | 96 | 1024.6 |
| 20260830061705 | 21 | 80 | 1.6 | 3.2 | 0.00 | 0.00 | 0.00 | 96 | 1024.7 |
| 20260830061604 | 21 | 80 | 0.0 | 3.2 | 0.00 | 0.00 | 0.00 | 96 | 1024.6 |
| 20260830061505 | 21 | 80 | 0.0 | 3.2 | 0.00 | 0.00 | 0.00 | 96 | 1024.6 |
| 20260830061405 | 21 | 80 | 0.0 | 3.2 | 0.00 | 0.00 | 0.00 | 96 | 1024.7 |
| 20260830061302 | 21 | 80 | 0.0 | 3.2 | 0.00 | 0.00 | 0.00 | 96 | 1024.8 |
| 20260830061159 | 21 | 80 | 0.0 | 3.2 | 0.00 | 0.00 | 0.00 | 96 | 1024.7 |
| 20260830061058 | 21 | 80 | 0.0 | 1.6 | 0.00 | 0.00 | 0.00 | 96 | 1024.7 |
| 20260830060956 | 21 | 80 | 0.0 | 1.6 | 0.00 | 0.00 | 0.00 | 96 | 1024.8 |
| 20260830060855 | 21 | 80 | 0.0 | 1.6 | 0.00 | 0.00 | 0.00 | 96 | 1024.8 |
| 20260830060751 | 21 | 80 | 0.0 | 1.6 | 0.00 | 0.00 | 0.00 | 96 | 1024.7 |
| 20260830060648 | 21 | 80 | 0.0 | 3.2 | 0.00 | 0.00 | 0.00 | 96 | 1024.7 |
| 20260830060548 | 21 | 80 | 0.0 | 3.2 | 0.00 | 0.00 | 0.00 | 96 | 1024.8 |
| 20260830060449 | 21 | 80 | 0.0 | 3.2 | 0.00 | 0.00 | 0.00 | 96 | 1024.7 |
| 20260830060348 | 21 | 80 | 0.0 | 3.2 | 0.00 | 0.00 | 0.00 | 96 | 1024.7 |
| 20260830060249 | 21 | 80 | 1.6 | 3.2 | 0.00 | 0.00 | 0.00 | 96 | 1024.7 |
| 20260830060147 | 21 | 80 | 1.6 | 3.2 | 0.00 | 0.00 | 0.00 | 96 | 1024.7 |
| 20260830060048 | 21 | 80 | 1.6 | 3.2 | 0.00 | 0.00 | 0.00 | 96 | 1024.7 |
| 20260830055944 | 21 | 80 | 1.6 | 3.2 | 0.00 | 0.00 | 0.00 | 96 | 1024.8 |
| 20260830055843 | 21 | 80 | 1.6 | 3.2 | 0.00 | 0.00 | 0.00 | 96 | 1024.7 |
| 20260830055739 | 21 | 80 | 1.6 | 4.8 | 0.00 | 0.00 | 0.00 | 96 | 1024.8 |
| 20260830055636 | 21 | 80 | 1.6 | 4.8 | 0.00 | 0.00 | 0.00 | 96 | 1024.8 |
| 20260830055534 | 21 | 80 | 1.6 | 4.8 | 0.00 | 0.00 | 0.00 | 96 | 1024.8 |
| 20260830055435 | 21 | 80 | 1.6 | 4.8 | 0.00 | 0.00 | 0.00 | 96 | 1024.8 |
| 20260830055332 | 21 | 80 | 1.6 | 4.8 | 0.00 | 0.00 | 0.00 | 96 | 1024.8 |
| 20260830055226 | 21 | 80 | 1.6 | 4.8 | 0.00 | 0.00 | 0.00 | 96 | 1024.8 |
| 20260830055122 | 21 | 80 | 1.6 | 4.8 | 0.00 | 0.00 | 0.00 | 96 | 1024.7 |
| 20260830055024 | 21 | 80 | 1.6 | 4.8 | 0.00 | 0.00 | 0.00 | 96 | 1024.9 |
| 20260830054921 | 21 | 80 | 1.6 | 4.8 | 0.00 | 0.00 | 0.00 | 96 | 1024.8 |
| 20260830054819 | 21 | 80 | 1.6 | 4.8 | 0.00 | 0.00 | 0.00 | 96 | 1024.9 |
| 20260830054718 | 21 | 80 | 1.6 | 3.2 | 0.00 | 0.00 | 0.00 | 96 | 1024.9 |
| 20260830054616 | 21 | 80 | 1.6 | 3.2 | 0.00 | 0.00 | 0.00 | 96 | 1024.9 |
| 20260830054517 | 21 | 80 | 1.6 | 3.2 | 0.00 | 0.00 | 0.00 | 96 | 1024.9 |
| 20260830054414 | 21 | 114 | 1.6 | 3.2 | 0.00 | 0.00 | 0.00 | 96 | 1024.9 |
| 20260830054312 | 21 | 114 | 1.6 | 3.2 | 0.00 | 0.00 | 0.00 | 96 | 1024.9 |
| 20260830054213 | 21 | 114 | 1.6 | 3.2 | 0.00 | 0.00 | 0.00 | 96 | 1024.9 |
| 20260830054113 | 21 | 114 | 1.6 | 3.2 | 0.00 | 0.00 | 0.00 | 96 | 1024.9 |
| 20260830054013 | 21 | 114 | 1.6 | 3.2 | 0.00 | 0.00 | 0.00 | 96 | 1024.9 |
| 20260830053913 | 21 | 114 | 1.6 | 3.2 | 0.00 | 0.00 | 0.00 | 96 | 1025.1 |
| 20260830053811 | 21 | 114 | 1.6 | 3.2 | 0.00 | 0.00 | 0.00 | 96 | 1024.9 |
| 20260830053703 | 21 | 114 | 1.6 | 3.2 | 0.00 | 0.00 | 0.00 | 96 | 1025.1 |
| 20260830053604 | 21 | 114 | 1.6 | 3.2 | 0.00 | 0.00 | 0.00 | 96 | 1024.9 |
| 20260830053504 | 21 | 114 | 1.6 | 3.2 | 0.00 | 0.00 | 0.00 | 96 | 1024.9 |
| 20260830053404 | 21 | 114 | 1.6 | 3.2 | 0.00 | 0.00 | 0.00 | 96 | 1024.9 |
| 20260830053304 | 21 | 114 | 1.6 | 3.2 | 0.00 | 0.00 | 0.00 | 96 | 1024.9 |
| 20260830053202 | 21 | 114 | 1.6 | 3.2 | 0.00 | 0.00 | 0.00 | 96 | 1025.1 |
| 20260830053104 | 21 | 114 | 1.6 | 3.2 | 0.00 | 0.00 | 0.00 | 96 | 1025.1 |
| 20260830053004 | 21 | 114 | 1.6 | 3.2 | 0.00 | 0.00 | 0.00 | 96 | 1025.1 |
| 20260830052902 | 21 | 114 | 1.6 | 3.2 | 0.00 | 0.00 | 0.00 | 96 | 1025.1 |
| 20260830052802 | 21 | 114 | 0.0 | 3.2 | 0.00 | 0.00 | 0.00 | 96 | 1024.9 |
| 20260830052702 | 21 | 117 | 0.0 | 3.2 | 0.00 | 0.00 | 0.00 | 96 | 1024.9 |
| 20260830052602 | 21 | 118 | 0.0 | 3.2 | 0.00 | 0.00 | 0.00 | 96 | 1025.1 |
| 20260830052502 | 21 | 118 | 0.0 | 3.2 | 0.00 | 0.00 | 0.00 | 96 | 1024.9 |
| 20260830052403 | 21 | 118 | 0.0 | 3.2 | 0.00 | 0.00 | 0.00 | 96 | 1024.9 |
| 20260830052301 | 21 | 118 | 0.0 | 3.2 | 0.00 | 0.00 | 0.00 | 96 | 1024.9 |
| 20260830052200 | 21 | 118 | 0.0 | 1.6 | 0.00 | 0.00 | 0.00 | 96 | 1024.9 |
| 20260830052059 | 21 | 118 | 0.0 | 1.6 | 0.00 | 0.00 | 0.00 | 96 | 1024.9 |
| 20260830051958 | 21 | 118 | 0.0 | 1.6 | 0.00 | 0.00 | 0.00 | 96 | 1024.9 |
| 20260830051856 | 21 | 118 | 0.0 | 1.6 | 0.00 | 0.00 | 0.00 | 96 | 1024.9 |
| 20260830051757 | 21 | 118 | 0.0 | 4.8 | 0.00 | 0.00 | 0.00 | 96 | 1024.8 |
| 20260830051654 | 21 | 118 | 1.6 | 4.8 | 0.00 | 0.00 | 0.00 | 96 | 1024.9 |
| 20260830051552 | 21 | 118 | 1.6 | 4.8 | 0.00 | 0.00 | 0.00 | 96 | 1024.9 |
| 20260830051454 | 21 | 118 | 1.6 | 4.8 | 0.00 | 0.00 | 0.00 | 96 | 1025.1 |
| 20260830051351 | 21 | 118 | 1.6 | 4.8 | 0.00 | 0.00 | 0.00 | 95 | 1025.1 |
| 20260830051249 | 21 | 118 | 1.6 | 4.8 | 0.00 | 0.00 | 0.00 | 95 | 1024.9 |
| 20260830051148 | 21 | 118 | 1.6 | 4.8 | 0.00 | 0.00 | 0.00 | 96 | 1025.1 |
| 20260830051046 | 21 | 118 | 3.2 | 4.8 | 0.00 | 0.00 | 0.00 | 96 | 1024.9 |
| 20260830050944 | 21 | 118 | 3.2 | 14.5 | 0.00 | 0.00 | 0.00 | 95 | 1025.1 |
| 20260830050844 | 21 | 117 | 3.2 | 14.5 | 0.00 | 0.00 | 0.00 | 95 | 1025.2 |
| 20260830050744 | 21 | 117 | 4.8 | 14.5 | 0.00 | 0.00 | 0.00 | 95 | 1025.1 |
| 20260830050645 | 21 | 117 | 4.8 | 14.5 | 0.00 | 0.00 | 0.00 | 95 | 1025.1 |
| 20260830050544 | 21 | 136 | 4.8 | 14.5 | 0.00 | 0.00 | 0.00 | 95 | 1025.2 |
| 20260830050438 | 21 | 136 | 6.4 | 14.5 | 0.00 | 0.00 | 0.00 | 95 | 1025.1 |
| 20260830050338 | 21 | 136 | 6.4 | 14.5 | 0.00 | 0.00 | 0.00 | 95 | 1025.1 |
| 20260830050238 | 21 | 102 | 6.4 | 14.5 | 0.00 | 0.00 | 0.00 | 95 | 1025.1 |
| 20260830050139 | 21 | 125 | 6.4 | 14.5 | 0.00 | 0.00 | 0.00 | 95 | 1025.1 |
| 20260830050039 | 21 | 140 | 6.4 | 14.5 | 0.00 | 0.00 | 0.00 | 95 | 1025.1 |
| 20260830045934 | 21 | 150 | 6.4 | 12.9 | 0.00 | 0.00 | 0.00 | 95 | 1025.2 |
| 20260830045834 | 21 | 123 | 6.4 | 12.9 | 0.00 | 0.00 | 0.00 | 95 | 1025.2 |
| 20260830045733 | 21 | 93 | 6.4 | 12.9 | 0.00 | 0.00 | 0.00 | 95 | 1025.2 |
| 20260830045635 | 21 | 122 | 6.4 | 12.9 | 0.00 | 0.00 | 0.00 | 95 | 1025.2 |
| 20260830045532 | 21 | 141 | 6.4 | 12.9 | 0.00 | 0.00 | 0.00 | 95 | 1025.2 |
| 20260830045426 | 21 | 124 | 6.4 | 14.5 | 0.00 | 0.00 | 0.00 | 95 | 1025.2 |
| 20260830045326 | 21 | 148 | 8.0 | 19.3 | 0.00 | 0.00 | 0.00 | 95 | 1025.2 |
| 20260830045223 | 21 | 113 | 8.0 | 19.3 | 0.00 | 0.00 | 0.00 | 95 | 1025.2 |
| 20260830045125 | 21 | 119 | 8.0 | 19.3 | 0.00 | 0.00 | 0.00 | 95 | 1025.1 |
| 20260830045023 | 21 | 115 | 8.0 | 19.3 | 0.00 | 0.00 | 0.00 | 95 | 1025.1 |
| 20260830044917 | 21 | 110 | 8.0 | 19.3 | 0.00 | 0.00 | 0.00 | 95 | 1025.1 |
| 20260830044816 | 21 | 167 | 8.0 | 19.3 | 0.00 | 0.00 | 0.00 | 95 | 1025.1 |
| 20260830044717 | 21 | 169 | 9.7 | 19.3 | 0.00 | 0.00 | 0.00 | 95 | 1025.1 |
| 20260830044615 | 21 | 135 | 9.7 | 19.3 | 0.00 | 0.00 | 0.00 | 95 | 1024.9 |
| 20260830044517 | 21 | 109 | 9.7 | 19.3 | 0.00 | 0.00 | 0.00 | 95 | 1024.9 |
| 20260830044410 | 21 | 125 | 11.3 | 20.9 | 0.00 | 0.00 | 0.00 | 95 | 1024.8 |
| 20260830044310 | 21 | 136 | 9.7 | 20.9 | 0.00 | 0.00 | 0.00 | 95 | 1025.1 |
| 20260830044211 | 21 | 117 | 11.3 | 20.9 | 0.00 | 0.00 | 0.00 | 95 | 1024.9 |
| 20260830044111 | 21 | 164 | 11.3 | 20.9 | 0.00 | 0.00 | 0.00 | 95 | 1025.1 |
| 20260830044010 | 21 | 142 | 11.3 | 20.9 | 0.00 | 0.00 | 0.00 | 95 | 1024.8 |
| 20260830043905 | 21 | 163 | 11.3 | 20.9 | 0.00 | 0.00 | 0.00 | 95 | 1024.9 |
| 20260830043805 | 21 | 153 | 11.3 | 20.9 | 0.00 | 0.00 | 0.00 | 95 | 1024.8 |
| 20260830043705 | 21 | 132 | 11.3 | 20.9 | 0.00 | 0.00 | 0.00 | 95 | 1024.9 |
| 20260830043604 | 21 | 146 | 9.7 | 20.9 | 0.00 | 0.00 | 0.00 | 95 | 1024.9 |
| 20260830043504 | 21 | 131 | 9.7 | 20.9 | 0.00 | 0.00 | 0.00 | 95 | 1024.9 |
| 20260830043403 | 21 | 154 | 9.7 | 22.5 | 0.00 | 0.00 | 0.00 | 95 | 1024.9 |
| 20260830043302 | 21 | 146 | 9.7 | 22.5 | 0.00 | 0.00 | 0.00 | 95 | 1024.9 |
| 20260830043202 | 21 | 113 | 9.7 | 22.5 | 0.00 | 0.00 | 0.00 | 95 | 1024.8 |
| 20260830043102 | 21 | 134 | 9.7 | 22.5 | 0.00 | 0.00 | 0.00 | 95 | 1024.9 |
| 20260830043003 | 21 | 178 | 9.7 | 22.5 | 0.00 | 0.00 | 0.00 | 95 | 1024.9 |
| 20260830042902 | 21 | 124 | 9.7 | 22.5 | 0.00 | 0.00 | 0.00 | 95 | 1024.9 |
| 20260830042802 | 21 | 144 | 9.7 | 22.5 | 0.00 | 0.00 | 0.00 | 95 | 1024.9 |
| 20260830042702 | 21 | 130 | 9.7 | 22.5 | 0.00 | 0.00 | 0.00 | 95 | 1025.1 |
| 20260830042602 | 21 | 122 | 9.7 | 22.5 | 0.00 | 0.00 | 0.00 | 95 | 1025.1 |
| 20260830042502 | 21 | 177 | 9.7 | 22.5 | 0.00 | 0.00 | 0.00 | 95 | 1025.1 |
| 20260830042402 | 21 | 110 | 9.7 | 19.3 | 0.00 | 0.00 | 0.00 | 95 | 1025.2 |
| 20260830042305 | 21 | 142 | 9.7 | 19.3 | 0.00 | 0.00 | 0.00 | 95 | 1025.1 |
| 20260830042158 | 21 | 133 | 9.7 | 19.3 | 0.00 | 0.00 | 0.00 | 95 | 1025.1 |
| 20260830042100 | 21 | 126 | 11.3 | 19.3 | 0.00 | 0.00 | 0.00 | 95 | 1025.1 |
| 20260830041958 | 21 | 116 | 9.7 | 19.3 | 0.00 | 0.00 | 0.00 | 95 | 1024.9 |
| 20260830041858 | 21 | 153 | 9.7 | 19.3 | 0.00 | 0.00 | 0.00 | 95 | 1025.1 |
| 20260830041758 | 21 | 129 | 9.7 | 19.3 | 0.00 | 0.00 | 0.00 | 95 | 1025.1 |
| 20260830041659 | 21 | 134 | 9.7 | 19.3 | 0.00 | 0.00 | 0.00 | 95 | 1025.1 |
| 20260830041600 | 21 | 138 | 9.7 | 19.3 | 0.00 | 0.00 | 0.00 | 95 | 1025.1 |
| 20260830041459 | 21 | 132 | 9.7 | 19.3 | 0.00 | 0.00 | 0.00 | 95 | 1024.9 |
| 20260830041358 | 21 | 141 | 8.0 | 19.3 | 0.00 | 0.00 | 0.00 | 95 | 1025.2 |
| 20260830041258 | 21 | 144 | 6.4 | 19.3 | 0.00 | 0.00 | 0.00 | 95 | 1025.1 |
| 20260830041159 | 21 | 163 | 4.8 | 16.1 | 0.00 | 0.00 | 0.00 | 95 | 1025.2 |
| 20260830041059 | 21 | 161 | 4.8 | 14.5 | 0.00 | 0.00 | 0.00 | 95 | 1025.2 |
| 20260830040958 | 21 | 134 | 3.2 | 14.5 | 0.00 | 0.00 | 0.00 | 95 | 1025.2 |
| 20260830040859 | 21 | 140 | 3.2 | 12.9 | 0.00 | 0.00 | 0.00 | 94 | 1025.2 |
| 20260830040758 | 21 | 128 | 1.6 | 12.9 | 0.00 | 0.00 | 0.00 | 94 | 1025.2 |
| 20260830040659 | 21 | 134 | 1.6 | 12.9 | 0.00 | 0.00 | 0.00 | 94 | 1025.2 |
| 20260830040558 | 21 | 131 | 0.0 | 12.9 | 0.00 | 0.00 | 0.00 | 94 | 1025.2 |
| 20260830040454 | 21 | 140 | 0.0 | 4.8 | 0.00 | 0.00 | 0.00 | 94 | 1025.2 |
| 20260830040355 | 21 | 144 | 0.0 | 4.8 | 0.00 | 0.00 | 0.00 | 94 | 1025.2 |
| 20260830040255 | 21 | 132 | 0.0 | 4.8 | 0.00 | 0.00 | 0.00 | 94 | 1025.2 |
| 20260830040154 | 21 | 138 | 0.0 | 4.8 | 0.00 | 0.00 | 0.00 | 94 | 1025.2 |
| 20260830040053 | 21 | 106 | 0.0 | 0.0 | 0.00 | 0.00 | 0.00 | 94 | 1025.3 |
| 20260830035947 | 21 | 141 | 0.0 | 0.0 | 0.00 | 0.00 | 0.00 | 94 | 1025.3 |
| 20260830035846 | 21 | 144 | 0.0 | 0.0 | 0.00 | 0.00 | 0.00 | 94 | 1025.3 |
| 20260830035747 | 21 | 127 | 0.0 | 0.0 | 0.00 | 0.00 | 0.00 | 94 | 1025.2 |
| 20260830035647 | 21 | 121 | 0.0 | 0.0 | 0.00 | 0.00 | 0.00 | 94 | 1025.1 |
| 20260830035547 | 21 | 131 | 0.0 | 0.0 | 0.00 | 0.00 | 0.00 | 94 | 1025.2 |
| 20260830035440 | 21 | 149 | 0.0 | 0.0 | 0.00 | 0.00 | 0.00 | 94 | 1025.1 |
| 20260830035341 | 21 | 130 | 0.0 | 0.0 | 0.00 | 0.00 | 0.00 | 94 | 1025.1 |
| 20260830035240 | 21 | 150 | 0.0 | 0.0 | 0.00 | 0.00 | 0.00 | 94 | 1025.2 |
| 20260830035139 | 21 | 151 | 0.0 | 0.0 | 0.00 | 0.00 | 0.00 | 94 | 1025.2 |
| 20260830035037 | 21 | 99 | 0.0 | 0.0 | 0.00 | 0.00 | 0.00 | 94 | 1025.2 |
| 20260830034939 | 21 | 146 | 0.0 | 0.0 | 0.00 | 0.00 | 0.00 | 94 | 1025.2 |
| 20260830034840 | 21 | 134 | 0.0 | 0.0 | 0.00 | 0.00 | 0.00 | 94 | 1025.2 |
| 20260830034739 | 21 | 125 | 0.0 | 0.0 | 0.00 | 0.00 | 0.00 | 94 | 1025.3 |
| 20260830034636 | 21 | 146 | 0.0 | 0.0 | 0.00 | 0.00 | 0.00 | 94 | 1025.2 |
| 20260830034538 | 21 | 131 | 0.0 | 0.0 | 0.00 | 0.00 | 0.00 | 94 | 1025.2 |
| 20260830034436 | 21 | 144 | 0.0 | 0.0 | 0.00 | 0.00 | 0.00 | 94 | 1025.2 |
| 20260830034336 | 21 | 140 | 0.0 | 0.0 | 0.00 | 0.00 | 0.00 | 94 | 1025.1 |
| 20260830034235 | 21 | 131 | 0.0 | 0.0 | 0.00 | 0.00 | 0.00 | 94 | 1025.1 |
| 20260830034134 | 21 | 142 | 0.0 | 0.0 | 0.00 | 0.00 | 0.00 | 94 | 1025.1 |
| 20260830034034 | 21 | 124 | 0.0 | 0.0 | 0.00 | 0.00 | 0.00 | 94 | 1025.1 |
| 20260830033934 | 21 | 147 | 0.0 | 0.0 | 0.00 | 0.00 | 0.00 | 94 | 1025.1 |
| 20260830033835 | 21 | 152 | 0.0 | 0.0 | 0.00 | 0.00 | 0.00 | 94 | 1025.1 |
| 20260830033734 | 21 | 133 | 0.0 | 0.0 | 0.00 | 0.00 | 0.00 | 94 | 1025.1 |
| 20260830033636 | 21 | 136 | 0.0 | 0.0 | 0.00 | 0.00 | 0.00 | 94 | 1025.1 |
| 20260830033534 | 21 | 126 | 0.0 | 0.0 | 0.00 | 0.00 | 0.00 | 94 | 1025.2 |
| 20260830033435 | 21 | 138 | 0.0 | 0.0 | 0.00 | 0.00 | 0.00 | 94 | 1025.2 |
| 20260830033333 | 21 | 122 | 0.0 | 0.0 | 0.00 | 0.00 | 0.00 | 94 | 1025.2 |
| 20260830033229 | 21 | 123 | 0.0 | 0.0 | 0.00 | 0.00 | 0.00 | 94 | 1025.1 |
| 20260830033127 | 21 | 134 | 0.0 | 0.0 | 0.00 | 0.00 | 0.00 | 94 | 1025.1 |
| 20260830033027 | 21 | 142 | 0.0 | 0.0 | 0.00 | 0.00 | 0.00 | 94 | 1025.2 |
| 20260830032926 | 21 | 125 | 0.0 | 0.0 | 0.00 | 0.00 | 0.00 | 94 | 1025.1 |
| 20260830032827 | 21 | 122 | 0.0 | 0.0 | 0.00 | 0.00 | 0.00 | 94 | 1025.1 |
| 20260830032719 | 21 | 148 | 0.0 | 0.0 | 0.00 | 0.00 | 0.00 | 94 | 1025.1 |
| 20260830032620 | 21 | 163 | 0.0 | 0.0 | 0.00 | 0.00 | 0.00 | 94 | 1025.2 |
| 20260830032520 | 21 | 147 | 0.0 | 0.0 | 0.00 | 0.00 | 0.00 | 94 | 1025.2 |
| 20260830032420 | 21 | 148 | 0.0 | 0.0 | 0.00 | 0.00 | 0.00 | 94 | 1025.1 |
| 20260830032321 | 21 | 136 | 0.0 | 0.0 | 0.00 | 0.00 | 0.00 | 94 | 1025.1 |
| 20260830032216 | 21 | 144 | 0.0 | 0.0 | 0.00 | 0.00 | 0.00 | 94 | 1025.2 |
| 20260830032114 | 21 | 133 | 0.0 | 0.0 | 0.00 | 0.00 | 0.00 | 94 | 1025.2 |
| 20260830032013 | 21 | 147 | 0.0 | 0.0 | 0.00 | 0.00 | 0.00 | 93 | 1025.2 |
| 20260830031914 | 21 | 138 | 0.0 | 0.0 | 0.00 | 0.00 | 0.00 | 93 | 1025.2 |
| 20260830031814 | 21 | 137 | 0.0 | 0.0 | 0.00 | 0.00 | 0.00 | 94 | 1025.2 |
| 20260830031714 | 21 | 121 | 0.0 | 0.0 | 0.00 | 0.00 | 0.00 | 94 | 1025.1 |
| 20260830031615 | 21 | 141 | 0.0 | 0.0 | 0.00 | 0.00 | 0.00 | 93 | 1025.2 |
| 20260830031514 | 21 | 113 | 0.0 | 0.0 | 0.00 | 0.00 | 0.00 | 94 | 1025.2 |
| 20260830031414 | 21 | 126 | 0.0 | 0.0 | 0.00 | 0.00 | 0.00 | 93 | 1025.2 |
| 20260830031314 | 21 | 140 | 0.0 | 0.0 | 0.00 | 0.00 | 0.00 | 93 | 1025.1 |
| 20260830031214 | 21 | 130 | 0.0 | 0.0 | 0.00 | 0.00 | 0.00 | 93 | 1025.1 |
| 20260830031114 | 21 | 117 | 0.0 | 0.0 | 0.00 | 0.00 | 0.00 | 93 | 1025.1 |
| 20260830031014 | 21 | 142 | 0.0 | 0.0 | 0.00 | 0.00 | 0.00 | 93 | 1025.1 |
| 20260830030914 | 21 | 141 | 0.0 | 0.0 | 0.00 | 0.00 | 0.00 | 93 | 1025.1 |
| 20260830030814 | 21 | 114 | 0.0 | 0.0 | 0.00 | 0.00 | 0.00 | 93 | 1025.1 |
| 20260830030714 | 21 | 148 | 0.0 | 0.0 | 0.00 | 0.00 | 0.00 | 93 | 1025.1 |
| 20260830030613 | 21 | 143 | 0.0 | 0.0 | 0.00 | 0.00 | 0.00 | 93 | 1024.9 |
| 20260830030512 | 21 | 114 | 0.0 | 0.0 | 0.00 | 0.00 | 0.00 | 93 | 1025.1 |
| 20260830030412 | 21 | 127 | 0.0 | 0.0 | 0.00 | 0.00 | 0.00 | 93 | 1025.1 |
| 20260830030313 | 21 | 118 | 0.0 | 0.0 | 0.00 | 0.00 | 0.00 | 93 | 1024.9 |
| 20260830030211 | 21 | 153 | 0.0 | 0.0 | 0.00 | 0.00 | 0.00 | 93 | 1025.1 |
| 20260830030110 | 21 | 134 | 0.0 | 0.0 | 0.00 | 0.00 | 0.00 | 93 | 1024.9 |
| 20260830030010 | 21 | 134 | 0.0 | 0.0 | 0.00 | 0.00 | 0.00 | 93 | 1024.9 |
| 20260830025910 | 21 | 132 | 0.0 | 0.0 | 0.00 | 0.00 | 0.00 | 93 | 1024.8 |
| 20260830025808 | 21 | 128 | 0.0 | 0.0 | 0.00 | 0.00 | 0.00 | 93 | 1024.8 |
| 20260830025709 | 21 | 141 | 0.0 | 0.0 | 0.00 | 0.00 | 0.00 | 93 | 1024.8 |
| 20260830025608 | 21 | 151 | 0.0 | 0.0 | 0.00 | 0.00 | 0.00 | 93 | 1024.9 |
| 20260830025508 | 21 | 162 | 0.0 | 0.0 | 0.00 | 0.00 | 0.00 | 93 | 1024.9 |
| 20260830025408 | 21 | 148 | 0.0 | 0.0 | 0.00 | 0.00 | 0.00 | 93 | 1024.8 |
| 20260830025308 | 21 | 126 | 0.0 | 0.0 | 0.00 | 0.00 | 0.00 | 93 | 1024.9 |
| 20260830025209 | 21 | 135 | 0.0 | 0.0 | 0.00 | 0.00 | 0.00 | 93 | 1024.6 |
| 20260830025108 | 21 | 129 | 0.0 | 0.0 | 0.00 | 0.00 | 0.00 | 93 | 1024.7 |